Observation data for Tarzan on 01/20/2019      Previous  Date  Next       Current Mesonet Observations  Soil Data  Daily Summary Page  Observations in Plain Language
KTA1 200600Z 11005KT 01/M05 A3031 RMK A01 T00091048  RH  065%=      5-min Rain = 0
KTA1 200601Z 12005KT 01/M05 A3031 RMK A01 T00081049  RH  065%=      5-min Rain = 0
KTA1 200602Z 13005KT 01/M05 A3031 RMK A01 T00071050  RH  066%=      5-min Rain = 0
KTA1 200603Z 13005KT 01/M05 A3031 RMK A01 T00071050  RH  066%=      5-min Rain = 0
KTA1 200604Z 13005KT 01/M05 A3031 RMK A01 T00061050  RH  066%=      5-min Rain = 0
KTA1 200605Z 13005KT 01/M05 A3031 RMK A01 T00061050  RH  066%=      5-min Rain = 0
KTA1 200606Z 13004KT 01/M05 A3031 RMK A01 T00051050  RH  067%=      5-min Rain = 0
KTA1 200607Z 13004KT 01/M05 A3031 RMK A01 T00051050  RH  067%=      5-min Rain = 0
KTA1 200608Z 13004KT 01/M05 A3031 RMK A01 T00051050  RH  067%=      5-min Rain = 0
KTA1 200609Z 13005KT 01/M05 A3031 RMK A01 T00051050  RH  067%=      5-min Rain = 0
KTA1 200610Z 13005KT 01/M05 A3031 RMK A01 T00051049  RH  067%=      5-min Rain = 0
KTA1 200611Z 13005KT 01/M05 A3031 RMK A01 T00061049  RH  067%=      5-min Rain = 0
KTA1 200612Z 14005KT 01/M05 A3031 RMK A01 T00071048  RH  067%=      5-min Rain = 0
KTA1 200613Z 14005KT 01/M05 A3031 RMK A01 T00071049  RH  066%=      5-min Rain = 0
KTA1 200614Z 14005KT 01/M05 A3031 RMK A01 T00071049  RH  066%=      5-min Rain = 0
KTA1 200615Z 13006KT 01/M05 A3031 RMK A01 T00071049  RH  066%=      5-min Rain = 0
KTA1 200616Z 13006KT 01/M05 A3031 RMK A01 T00071049  RH  066%=      5-min Rain = 0
KTA1 200617Z 13006KT 01/M05 A3031 RMK A01 T00071049  RH  066%=      5-min Rain = 0
KTA1 200618Z 14005KT 01/M05 A3031 RMK A01 T00081049  RH  066%=      5-min Rain = 0
KTA1 200619Z 14005KT 01/M05 A3031 RMK A01 T00081049  RH  066%=      5-min Rain = 0
KTA1 200620Z 13005KT 01/M05 A3031 RMK A01 T00071049  RH  066%=      5-min Rain = 0
KTA1 200621Z 13005KT 01/M05 A3031 RMK A01 T00071049  RH  066%=      5-min Rain = 0
KTA1 200622Z 12005KT 01/M05 A3031 RMK A01 T00081048  RH  066%=      5-min Rain = 0
KTA1 200623Z 12005KT 01/M05 A3031 RMK A01 T00081048  RH  066%=      5-min Rain = 0
KTA1 200624Z 12005KT 01/M05 A3031 RMK A01 T00081048  RH  066%=      5-min Rain = 0
KTA1 200625Z 12005KT 01/M05 A3031 RMK A01 T00081049  RH  066%=      5-min Rain = 0
KTA1 200626Z 13005KT 01/M05 A3031 RMK A01 T00081049  RH  066%=      5-min Rain = 0
KTA1 200627Z 13005KT 01/M05 A3031 RMK A01 T00071049  RH  066%=      5-min Rain = 0
KTA1 200628Z 13005KT 01/M05 A3031 RMK A01 T00061050  RH  066%=      5-min Rain = 0
KTA1 200629Z 13006KT 01/M05 A3031 RMK A01 T00051050  RH  066%=      5-min Rain = 0
KTA1 200630Z 13005KT 01/M05 A3031 RMK A01 T00051050  RH  067%=      5-min Rain = 0
KTA1 200631Z 13005KT 00/M05 A3031 RMK A01 T00041049  RH  067%=      5-min Rain = 0
KTA1 200632Z 13005KT 00/M05 A3031 RMK A01 T00041049  RH  068%=      5-min Rain = 0
KTA1 200633Z 13005KT 00/M05 A3031 RMK A01 T00041048  RH  068%=      5-min Rain = 0
KTA1 200634Z 13004KT 01/M05 A3031 RMK A01 T00051048  RH  068%=      5-min Rain = 0
KTA1 200635Z 13004KT 01/M05 A3031 RMK A01 T00051048  RH  067%=      5-min Rain = 0
KTA1 200636Z 13004KT 01/M05 A3031 RMK A01 T00051048  RH  067%=      5-min Rain = 0
KTA1 200637Z 13004KT 01/M05 A3031 RMK A01 T00061048  RH  067%=      5-min Rain = 0
KTA1 200638Z 13004KT 01/M05 A3031 RMK A01 T00061047  RH  067%=      5-min Rain = 0
KTA1 200639Z 14003KT 01/M05 A3031 RMK A01 T00061048  RH  067%=      5-min Rain = 0
KTA1 200640Z 13004KT 01/M05 A3031 RMK A01 T00061048  RH  067%=      5-min Rain = 0
KTA1 200641Z 12005KT 01/M05 A3031 RMK A01 T00061048  RH  067%=      5-min Rain = 0
KTA1 200642Z 12005KT 01/M05 A3031 RMK A01 T00061048  RH  068%=      5-min Rain = 0
KTA1 200643Z 12005KT 01/M05 A3031 RMK A01 T00061047  RH  068%=      5-min Rain = 0
KTA1 200644Z 12005KT 01/M05 A3031 RMK A01 T00051047  RH  068%=      5-min Rain = 0
KTA1 200645Z 13006KT 01/M05 A3031 RMK A01 T00051047  RH  068%=      5-min Rain = 0
KTA1 200646Z 12005KT 01/M05 A3031 RMK A01 T00051047  RH  068%=      5-min Rain = 0
KTA1 200647Z 12005KT 01/M05 A3031 RMK A01 T00051046  RH  068%=      5-min Rain = 0
KTA1 200648Z 12005KT 01/M05 A3031 RMK A01 T00051046  RH  069%=      5-min Rain = 0
KTA1 200649Z 12005KT 01/M05 A3031 RMK A01 T00051047  RH  068%=      5-min Rain = 0
KTA1 200650Z 12005KT 00/M05 A3031 RMK A01 T00041047  RH  068%=      5-min Rain = 0
KTA1 200651Z 12005KT 00/M05 A3031 RMK A01 T00041048  RH  068%=      5-min Rain = 0
KTA1 200652Z 11005KT 00/M05 A3031 RMK A01 T00031048  RH  068%=      5-min Rain = 0
KTA1 200653Z 11005KT 00/M05 A3031 RMK A01 T00031048  RH  068%=      5-min Rain = 0
KTA1 200654Z 11005KT 00/M05 A3031 RMK A01 T00031048  RH  068%=      5-min Rain = 0
KTA1 200655Z 11005KT 00/M05 A3031 RMK A01 T00031048  RH  069%=      5-min Rain = 0
KTA1 200656Z 12005KT 00/M05 A3031 RMK A01 T00041048  RH  068%=      5-min Rain = 0
KTA1 200657Z 12005KT 00/M05 A3031 RMK A01 T00041048  RH  068%=      5-min Rain = 0
KTA1 200658Z 12005KT 00/M05 A3031 RMK A01 T00041048  RH  068%=      5-min Rain = 0
KTA1 200659Z 12005KT 00/M05 A3031 RMK A01 T00031049  RH  068%=      5-min Rain = 0
KTA1 200700Z 12005KT 00/M05 A3031 RMK A01 T00021049  RH  068%=      5-min Rain = 0
KTA1 200701Z 12005KT 00/M05 A3031 RMK A01 T00021049  RH  068%=      5-min Rain = 0
KTA1 200702Z 12005KT 00/M05 A3031 RMK A01 T00021050  RH  068%=      5-min Rain = 0
KTA1 200703Z 12005KT 00/M05 A3031 RMK A01 T00021049  RH  068%=      5-min Rain = 0
KTA1 200704Z 12005KT 00/M05 A3031 RMK A01 T00021049  RH  068%=      5-min Rain = 0
KTA1 200705Z 12005KT 00/M05 A3031 RMK A01 T00031049  RH  068%=      5-min Rain = 0
KTA1 200706Z 12005KT 01/M05 A3031 RMK A01 T00051048  RH  068%=      5-min Rain = 0
KTA1 200707Z 12005KT 01/M05 A3031 RMK A01 T00051049  RH  067%=      5-min Rain = 0
KTA1 200708Z 12005KT 01/M05 A3031 RMK A01 T00051049  RH  067%=      5-min Rain = 0
KTA1 200709Z 12005KT 01/M05 A3031 RMK A01 T00051049  RH  067%=      5-min Rain = 0
KTA1 200710Z 12005KT 01/M05 A3031 RMK A01 T00051049  RH  067%=      5-min Rain = 0
KTA1 200711Z 12005KT 01/M05 A3031 RMK A01 T00051049  RH  067%=      5-min Rain = 0
KTA1 200712Z 12005KT 01/M05 A3031 RMK A01 T00051049  RH  067%=      5-min Rain = 0
KTA1 200713Z 12005KT 01/M05 A3031 RMK A01 T00051048  RH  067%=      5-min Rain = 0
KTA1 200714Z 12005KT 01/M05 A3031 RMK A01 T00061047  RH  067%=      5-min Rain = 0
KTA1 200715Z 12005KT 01/M05 A3031 RMK A01 T00061048  RH  067%=      5-min Rain = 0
KTA1 200716Z 12005KT 01/M05 A3031 RMK A01 T00061048  RH  067%=      5-min Rain = 0
KTA1 200717Z 12005KT 01/M05 A3031 RMK A01 T00061047  RH  068%=      5-min Rain = 0
KTA1 200718Z 12005KT 01/M05 A3031 RMK A01 T00061047  RH  068%=      5-min Rain = 0
KTA1 200719Z 12005KT 01/M05 A3031 RMK A01 T00051048  RH  068%=      5-min Rain = 0
KTA1 200720Z 12005KT 01/M05 A3031 RMK A01 T00051047  RH  068%=      5-min Rain = 0
KTA1 200721Z 11005KT 01/M05 A3031 RMK A01 T00051047  RH  068%=      5-min Rain = 0
KTA1 200722Z 11005KT 01/M05 A3031 RMK A01 T00051047  RH  068%=      5-min Rain = 0
KTA1 200723Z 11005KT 01/M05 A3031 RMK A01 T00051046  RH  068%=      5-min Rain = 0
KTA1 200724Z 11005KT 01/M05 A3031 RMK A01 T00061046  RH  068%=      5-min Rain = 0
KTA1 200725Z 11005KT 01/M05 A3031 RMK A01 T00071045  RH  068%=      5-min Rain = 0
KTA1 200726Z 10005KT 01/M05 A3031 RMK A01 T00071046  RH  068%=      5-min Rain = 0
KTA1 200727Z 10005KT 01/M05 A3031 RMK A01 T00061046  RH  068%=      5-min Rain = 0
KTA1 200728Z 10006KT 01/M05 A3031 RMK A01 T00061046  RH  068%=      5-min Rain = 0
KTA1 200729Z 10006KT 01/M05 A3031 RMK A01 T00061047  RH  068%=      5-min Rain = 0
KTA1 200730Z 09006KT 01/M05 A3031 RMK A01 T00051047  RH  068%=      5-min Rain = 0
KTA1 200731Z 09006KT 01/M05 A3031 RMK A01 T00051046  RH  069%=      5-min Rain = 0
KTA1 200732Z 09006KT 01/M05 A3031 RMK A01 T00061045  RH  069%=      5-min Rain = 0
KTA1 200733Z 10005KT 01/M05 A3031 RMK A01 T00061045  RH  069%=      5-min Rain = 0
KTA1 200734Z 10005KT 01/M05 A3031 RMK A01 T00061045  RH  069%=      5-min Rain = 0
KTA1 200735Z 10005KT 01/M05 A3031 RMK A01 T00061045  RH  068%=      5-min Rain = 0
KTA1 200736Z 10006KT 01/M05 A3031 RMK A01 T00061045  RH  068%=      5-min Rain = 0
KTA1 200737Z 10006KT 01/M05 A3031 RMK A01 T00071045  RH  068%=      5-min Rain = 0
KTA1 200738Z 10006KT 01/M05 A3031 RMK A01 T00071045  RH  068%=      5-min Rain = 0
KTA1 200739Z 10007KT 01/M05 A3031 RMK A01 T00071045  RH  068%=      5-min Rain = 0
KTA1 200740Z 10007KT 01/M04 A3031 RMK A01 T00071044  RH  068%=      5-min Rain = 0
KTA1 200741Z 10006KT 01/M04 A3031 RMK A01 T00071044  RH  068%=      5-min Rain = 0
KTA1 200742Z 10006KT 01/M05 A3031 RMK A01 T00061045  RH  068%=      5-min Rain = 0
KTA1 200743Z 11007KT 01/M05 A3031 RMK A01 T00051046  RH  069%=      5-min Rain = 0
KTA1 200744Z 11006KT 00/M05 A3031 RMK A01 T00041046  RH  069%=      5-min Rain = 0
KTA1 200745Z 11006KT 00/M05 A3031 RMK A01 T00031047  RH  069%=      5-min Rain = 0
KTA1 200746Z 11006KT 00/M05 A3031 RMK A01 T00021048  RH  069%=      5-min Rain = 0
KTA1 200747Z 11006KT 00/M05 A3031 RMK A01 T00011048  RH  069%=      5-min Rain = 0
KTA1 200748Z 11005KT 00/M05 A3031 RMK A01 T00011048  RH  070%=      5-min Rain = 0
KTA1 200749Z 12005KT 00/M05 A3031 RMK A01 T00011047  RH  070%=      5-min Rain = 0
KTA1 200750Z 12005KT 00/M05 A3031 RMK A01 T00011047  RH  070%=      5-min Rain = 0
KTA1 200751Z 12005KT 00/M05 A3031 RMK A01 T00011047  RH  070%=      5-min Rain = 0
KTA1 200752Z 12005KT 00/M05 A3031 RMK A01 T00011047  RH  070%=      5-min Rain = 0
KTA1 200753Z 13005KT 00/M05 A3031 RMK A01 T00011046  RH  071%=      5-min Rain = 0
KTA1 200754Z 13005KT 00/M05 A3031 RMK A01 T00011047  RH  070%=      5-min Rain = 0
KTA1 200755Z 13005KT 00/M05 A303 RMK A01 T00021046  RH  070%=      5-min Rain = 0
KTA1 200756Z 12005KT 00/M05 A303 RMK A01 T00031046  RH  070%=      5-min Rain = 0
KTA1 200757Z 12005KT 00/M05 A303 RMK A01 T00041045  RH  070%=      5-min Rain = 0
KTA1 200758Z 12005KT 00/M05 A303 RMK A01 T00041045  RH  070%=      5-min Rain = 0
KTA1 200759Z 13005KT 01/M04 A3031 RMK A01 T00051044  RH  069%=      5-min Rain = 0
KTA1 200800Z 12004KT 01/M04 A3031 RMK A01 T00051044  RH  069%=      5-min Rain = 0
KTA1 200801Z 12005KT 01/M04 A3031 RMK A01 T00051044  RH  070%=      5-min Rain = 0
KTA1 200802Z 12005KT 01/M04 A303 RMK A01 T00051044  RH  070%=      5-min Rain = 0
KTA1 200803Z 12005KT 01/M04 A303 RMK A01 T00051044  RH  070%=      5-min Rain = 0
KTA1 200804Z 12005KT 01/M04 A303 RMK A01 T00051044  RH  070%=      5-min Rain = 0
KTA1 200805Z 12005KT 01/M04 A303 RMK A01 T00051044  RH  070%=      5-min Rain = 0
KTA1 200806Z 12005KT 01/M04 A303 RMK A01 T00061044  RH  069%=      5-min Rain = 0
KTA1 200807Z 11005KT 01/M04 A303 RMK A01 T00051044  RH  069%=      5-min Rain = 0
KTA1 200808Z 12005KT 01/M04 A303 RMK A01 T00061044  RH  069%=      5-min Rain = 0
KTA1 200809Z 12005KT 01/M04 A3031 RMK A01 T00061044  RH  069%=      5-min Rain = 0
KTA1 200810Z 11005KT 01/M04 A3031 RMK A01 T00061044  RH  069%=      5-min Rain = 0
KTA1 200811Z 11005KT 01/M04 A3031 RMK A01 T00061044  RH  069%=      5-min Rain = 0
KTA1 200812Z 11005KT 01/M04 A303 RMK A01 T00051044  RH  069%=      5-min Rain = 0
KTA1 200813Z 11005KT 01/M05 A303 RMK A01 T00051045  RH  069%=      5-min Rain = 0
KTA1 200814Z 11005KT 00/M05 A303 RMK A01 T00041045  RH  070%=      5-min Rain = 0
KTA1 200815Z 11005KT 00/M05 A303 RMK A01 T00041045  RH  070%=      5-min Rain = 0
KTA1 200816Z 11005KT 00/M05 A3031 RMK A01 T00041045  RH  070%=      5-min Rain = 0
KTA1 200817Z 11005KT 00/M05 A3031 RMK A01 T00041045  RH  070%=      5-min Rain = 0
KTA1 200818Z 11005KT 00/M05 A303 RMK A01 T00031045  RH  070%=      5-min Rain = 0
KTA1 200819Z 11005KT 00/M05 A303 RMK A01 T00021046  RH  070%=      5-min Rain = 0
KTA1 200820Z 11005KT 00/M05 A303 RMK A01 T00021046  RH  070%=      5-min Rain = 0
KTA1 200821Z 11004KT 00/M05 A303 RMK A01 T00011046  RH  070%=      5-min Rain = 0
KTA1 200822Z 11004KT 00/M05 A303 RMK A01 T00021046  RH  071%=      5-min Rain = 0
KTA1 200823Z 12004KT 00/M05 A303 RMK A01 T00021046  RH  070%=      5-min Rain = 0
KTA1 200824Z 12005KT 00/M05 A303 RMK A01 T00011046  RH  070%=      5-min Rain = 0
KTA1 200825Z 12005KT 00/05 A303 RMK A01 T00000-46  RH  071%=      5-min Rain = 0
KTA1 200826Z 12005KT 00/05 A303 RMK A01 T00000-46  RH  071%=      5-min Rain = 0
KTA1 200827Z 12005KT 00/05 A303 RMK A01 T00-00-47  RH  071%=      5-min Rain = 0
KTA1 200828Z 12005KT M00/M05 A303 RMK A01 T10011047  RH  071%=      5-min Rain = 0
KTA1 200829Z 12005KT M00/M05 A303 RMK A01 T10011046  RH  071%=      5-min Rain = 0
KTA1 200830Z 12005KT M00/M05 A303 RMK A01 T10011046  RH  071%=      5-min Rain = 0
KTA1 200831Z 12005KT M00/M05 A303 RMK A01 T10021047  RH  072%=      5-min Rain = 0
KTA1 200832Z 12005KT M00/M05 A303 RMK A01 T10021047  RH  072%=      5-min Rain = 0
KTA1 200833Z 12004KT M00/M05 A303 RMK A01 T10021047  RH  072%=      5-min Rain = 0
KTA1 200834Z 12005KT M00/M05 A303 RMK A01 T10021047  RH  072%=      5-min Rain = 0
KTA1 200835Z 12005KT M00/M05 A303 RMK A01 T10031047  RH  072%=      5-min Rain = 0
KTA1 200836Z 12005KT M00/M05 A303 RMK A01 T10031047  RH  072%=      5-min Rain = 0
KTA1 200837Z 12005KT M00/M05 A303 RMK A01 T10041047  RH  073%=      5-min Rain = 0
KTA1 200838Z 12005KT M00/M05 A303 RMK A01 T10041047  RH  073%=      5-min Rain = 0
KTA1 200839Z 12005KT M01/M05 A303 RMK A01 T10051047  RH  073%=      5-min Rain = 0
KTA1 200840Z 12005KT M01/M05 A303 RMK A01 T10051047  RH  073%=      5-min Rain = 0
KTA1 200841Z 12005KT M01/M05 A303 RMK A01 T10051047  RH  073%=      5-min Rain = 0
KTA1 200842Z 12005KT M01/M05 A303 RMK A01 T10061048  RH  073%=      5-min Rain = 0
KTA1 200843Z 12004KT M01/M05 A303 RMK A01 T10061048  RH  073%=      5-min Rain = 0
KTA1 200844Z 12004KT M01/M05 A303 RMK A01 T10061048  RH  074%=      5-min Rain = 0
KTA1 200845Z 12004KT M01/M05 A303 RMK A01 T10071048  RH  074%=      5-min Rain = 0
KTA1 200846Z 12004KT M01/M05 A303 RMK A01 T10071048  RH  074%=      5-min Rain = 0
KTA1 200847Z 12004KT M01/M05 A303 RMK A01 T10071048  RH  074%=      5-min Rain = 0
KTA1 200848Z 12004KT M01/M05 A303 RMK A01 T10071048  RH  074%=      5-min Rain = 0
KTA1 200849Z 12004KT M01/M05 A303 RMK A01 T10071048  RH  074%=      5-min Rain = 0
KTA1 200850Z 12004KT M01/M05 A303 RMK A01 T10071048  RH  074%=      5-min Rain = 0
KTA1 200851Z 12004KT M01/M05 A303 RMK A01 T10071048  RH  074%=      5-min Rain = 0
KTA1 200852Z 12004KT M01/M05 A303 RMK A01 T10071047  RH  074%=      5-min Rain = 0
KTA1 200853Z 12004KT M01/M05 A303 RMK A01 T10071047  RH  074%=      5-min Rain = 0
KTA1 200854Z 12004KT M01/M05 A303 RMK A01 T10071047  RH  074%=      5-min Rain = 0
KTA1 200855Z 12004KT M01/M05 A303 RMK A01 T10071047  RH  074%=      5-min Rain = 0
KTA1 200856Z 12004KT M01/M05 A303 RMK A01 T10061047  RH  074%=      5-min Rain = 0
KTA1 200857Z 12004KT M01/M05 A303 RMK A01 T10061047  RH  074%=      5-min Rain = 0
KTA1 200858Z 12004KT M01/M05 A303 RMK A01 T10051047  RH  074%=      5-min Rain = 0
KTA1 200859Z 12004KT M01/M05 A303 RMK A01 T10051047  RH  073%=      5-min Rain = 0
KTA1 200900Z 12004KT M01/M05 A303 RMK A01 T10051047  RH  073%=      5-min Rain = 0
KTA1 200901Z 12005KT M01/M05 A303 RMK A01 T10051047  RH  073%=      5-min Rain = 0
KTA1 200902Z 12005KT M01/M05 A3029 RMK A01 T10051047  RH  073%=      5-min Rain = 0
KTA1 200903Z 12005KT M01/M05 A3029 RMK A01 T10051047  RH  073%=      5-min Rain = 0
KTA1 200904Z 12005KT M01/M05 A3029 RMK A01 T10051047  RH  073%=      5-min Rain = 0
KTA1 200905Z 12005KT M01/M05 A3029 RMK A01 T10051047  RH  073%=      5-min Rain = 0
KTA1 200906Z 12005KT M01/M05 A3029 RMK A01 T10061048  RH  073%=      5-min Rain = 0
KTA1 200907Z 12005KT M01/M05 A3029 RMK A01 T10061047  RH  074%=      5-min Rain = 0
KTA1 200908Z 12004KT M01/M05 A3029 RMK A01 T10061048  RH  074%=      5-min Rain = 0
KTA1 200909Z 12004KT M01/M05 A3029 RMK A01 T10061047  RH  074%=      5-min Rain = 0
KTA1 200910Z 12004KT M01/M05 A3029 RMK A01 T10071048  RH  074%=      5-min Rain = 0
KTA1 200911Z 12004KT M01/M05 A3029 RMK A01 T10071047  RH  074%=      5-min Rain = 0
KTA1 200912Z 12005KT M01/M05 A3029 RMK A01 T10071047  RH  074%=      5-min Rain = 0
KTA1 200913Z 12005KT M01/M05 A3029 RMK A01 T10071048  RH  074%=      5-min Rain = 0
KTA1 200914Z 12005KT M01/M05 A3029 RMK A01 T10071048  RH  074%=      5-min Rain = 0
KTA1 200915Z 12005KT M01/M05 A3029 RMK A01 T10071048  RH  074%=      5-min Rain = 0
KTA1 200916Z 12005KT M01/M05 A3029 RMK A01 T10061048  RH  074%=      5-min Rain = 0
KTA1 200917Z 12005KT M01/M05 A3029 RMK A01 T10061047  RH  074%=      5-min Rain = 0
KTA1 200918Z 12005KT M01/M05 A3029 RMK A01 T10061047  RH  073%=      5-min Rain = 0
KTA1 200919Z 12005KT M01/M05 A3029 RMK A01 T10051047  RH  074%=      5-min Rain = 0
KTA1 200920Z 12005KT M01/M05 A3029 RMK A01 T10051046  RH  074%=      5-min Rain = 0
KTA1 200921Z 12005KT M00/M05 A3029 RMK A01 T10041045  RH  074%=      5-min Rain = 0
KTA1 200922Z 12005KT M00/M05 A3029 RMK A01 T10031045  RH  074%=      5-min Rain = 0
KTA1 200923Z 12005KT M00/M04 A3029 RMK A01 T10031044  RH  074%=      5-min Rain = 0
KTA1 200924Z 12005KT M00/M04 A3029 RMK A01 T10021044  RH  073%=      5-min Rain = 0
KTA1 200925Z 11005KT M00/M04 A3029 RMK A01 T10021044  RH  073%=      5-min Rain = 0
KTA1 200926Z 11005KT M00/M04 A3029 RMK A01 T10011044  RH  073%=      5-min Rain = 0
KTA1 200927Z 11005KT M00/M04 A3029 RMK A01 T10021044  RH  073%=      5-min Rain = 0
KTA1 200928Z 10005KT M00/M04 A3029 RMK A01 T10021044  RH  073%=      5-min Rain = 0
KTA1 200929Z 10005KT M00/M04 A3029 RMK A01 T10031044  RH  074%=      5-min Rain = 0
KTA1 200930Z 10005KT M00/M04 A3029 RMK A01 T10031044  RH  074%=      5-min Rain = 0
KTA1 200931Z 10005KT M00/M04 A3029 RMK A01 T10031044  RH  074%=      5-min Rain = 0
KTA1 200932Z 10005KT M00/M04 A3029 RMK A01 T10021043  RH  074%=      5-min Rain = 0
KTA1 200933Z 11004KT M00/M04 A3029 RMK A01 T10021043  RH  074%=      5-min Rain = 0
KTA1 200934Z 11005KT M00/M04 A3029 RMK A01 T10021043  RH  074%=      5-min Rain = 0
KTA1 200935Z 11005KT M00/M04 A3029 RMK A01 T10011042  RH  074%=      5-min Rain = 0
KTA1 200936Z 11005KT M00/M04 A3029 RMK A01 T10011043  RH  074%=      5-min Rain = 0
KTA1 200937Z 11005KT M00/M04 A3029 RMK A01 T10021043  RH  074%=      5-min Rain = 0
KTA1 200938Z 11005KT M00/M04 A3029 RMK A01 T10021043  RH  074%=      5-min Rain = 0
KTA1 200939Z 11005KT M00/M04 A3029 RMK A01 T10021042  RH  074%=      5-min Rain = 0
KTA1 200940Z 11005KT M00/M04 A3029 RMK A01 T10021042  RH  074%=      5-min Rain = 0
KTA1 200941Z 11005KT M00/M04 A3029 RMK A01 T10021042  RH  075%=      5-min Rain = 0
KTA1 200942Z 11005KT M00/M04 A3029 RMK A01 T10021042  RH  075%=      5-min Rain = 0
KTA1 200943Z 12006KT M00/M04 A3029 RMK A01 T10031043  RH  075%=      5-min Rain = 0
KTA1 200944Z 12006KT M00/M04 A3029 RMK A01 T10041044  RH  075%=      5-min Rain = 0
KTA1 200945Z 12006KT M01/M04 A3029 RMK A01 T10051044  RH  075%=      5-min Rain = 0
KTA1 200946Z 12006KT M01/M05 A3029 RMK A01 T10061045  RH  075%=      5-min Rain = 0
KTA1 200947Z 12006KT M01/M05 A3029 RMK A01 T10071045  RH  075%=      5-min Rain = 0
KTA1 200948Z 12005KT M01/M05 A3029 RMK A01 T10081045  RH  076%=      5-min Rain = 0
KTA1 200949Z 13005KT M01/M05 A3029 RMK A01 T10081046  RH  076%=      5-min Rain = 0
KTA1 200950Z 13005KT M01/M05 A3029 RMK A01 T10091046  RH  076%=      5-min Rain = 0
KTA1 200951Z 12005KT M01/M05 A3029 RMK A01 T10091045  RH  076%=      5-min Rain = 0
KTA1 200952Z 12006KT M01/M05 A3029 RMK A01 T10091045  RH  077%=      5-min Rain = 0
KTA1 200953Z 12006KT M01/M05 A3029 RMK A01 T10091045  RH  077%=      5-min Rain = 0
KTA1 200954Z 12006KT M01/M05 A3029 RMK A01 T10091045  RH  077%=      5-min Rain = 0
KTA1 200955Z 12006KT M01/M05 A3029 RMK A01 T10091045  RH  077%=      5-min Rain = 0
KTA1 200956Z 12006KT M01/M05 A3029 RMK A01 T10091045  RH  077%=      5-min Rain = 0
KTA1 200957Z 12006KT M01/M05 A3029 RMK A01 T10091045  RH  077%=      5-min Rain = 0
KTA1 200958Z 12006KT M01/M05 A3029 RMK A01 T10091045  RH  077%=      5-min Rain = 0
KTA1 200959Z 12006KT M01/M05 A3029 RMK A01 T10091045  RH  077%=      5-min Rain = 0
KTA1 201000Z 12006KT M01/M05 A3029 RMK A01 T10101045  RH  077%=      5-min Rain = 0
KTA1 201001Z 12006KT M01/M05 A3029 RMK A01 T10101045  RH  077%=      5-min Rain = 0
KTA1 201002Z 12006KT M01/M05 A3029 RMK A01 T10101045  RH  077%=      5-min Rain = 0
KTA1 201003Z 12005KT M01/M05 A3029 RMK A01 T10101045  RH  077%=      5-min Rain = 0
KTA1 201004Z 12005KT M01/M05 A3029 RMK A01 T10101045  RH  077%=      5-min Rain = 0
KTA1 201005Z 12006KT M01/M05 A3029 RMK A01 T10101045  RH  078%=      5-min Rain = 0
KTA1 201006Z 12006KT M01/M05 A3029 RMK A01 T10101045  RH  078%=      5-min Rain = 0
KTA1 201007Z 12006KT M01/M04 A3029 RMK A01 T10101044  RH  077%=      5-min Rain = 0
KTA1 201008Z 12006KT M01/M05 A3029 RMK A01 T10101045  RH  077%=      5-min Rain = 0
KTA1 201009Z 13006KT M01/M04 A3029 RMK A01 T10101044  RH  077%=      5-min Rain = 0
KTA1 201010Z 13005KT M01/M04 A3029 RMK A01 T10101044  RH  077%=      5-min Rain = 0
KTA1 201011Z 12006KT M01/M04 A3029 RMK A01 T10101044  RH  078%=      5-min Rain = 0
KTA1 201012Z 12006KT M01/M04 A3029 RMK A01 T10101044  RH  078%=      5-min Rain = 0
KTA1 201013Z 12006KT M01/M04 A3029 RMK A01 T10101044  RH  078%=      5-min Rain = 0
KTA1 201014Z 11006KT M01/M04 A3029 RMK A01 T10101044  RH  078%=      5-min Rain = 0
KTA1 201015Z 11006KT M01/M04 A3029 RMK A01 T10091044  RH  078%=      5-min Rain = 0
KTA1 201016Z 11006KT M01/M04 A3029 RMK A01 T10091044  RH  077%=      5-min Rain = 0
KTA1 201017Z 11007KT M01/M04 A3029 RMK A01 T10101044  RH  077%=      5-min Rain = 0
KTA1 201018Z 11006KT M01/M04 A3029 RMK A01 T10091044  RH  077%=      5-min Rain = 0
KTA1 201019Z 11006KT M01/M04 A3029 RMK A01 T10081043  RH  077%=      5-min Rain = 0
KTA1 201020Z 11007KT M01/M04 A3029 RMK A01 T10091044  RH  077%=      5-min Rain = 0
KTA1 201021Z 11006KT M01/M04 A3029 RMK A01 T10091043  RH  077%=      5-min Rain = 0
KTA1 201022Z 11007KT M01/M04 A3029 RMK A01 T10091043  RH  077%=      5-min Rain = 0
KTA1 201023Z 11007KT M01/M04 A3029 RMK A01 T10081043  RH  078%=      5-min Rain = 0
KTA1 201024Z 11006KT M01/M04 A3029 RMK A01 T10081042  RH  078%=      5-min Rain = 0
KTA1 201025Z 12005KT M01/M04 A3029 RMK A01 T10091043  RH  078%=      5-min Rain = 0
KTA1 201026Z 12006KT M01/M04 A3029 RMK A01 T10091043  RH  077%=      5-min Rain = 0
KTA1 201027Z 12006KT M01/M04 A3029 RMK A01 T10091043  RH  078%=      5-min Rain = 0
KTA1 201028Z 11005KT M01/M04 A3029 RMK A01 T10081043  RH  078%=      5-min Rain = 0
KTA1 201029Z 11005KT M01/M04 A3029 RMK A01 T10091043  RH  078%=      5-min Rain = 0
KTA1 201030Z 11006KT M01/M04 A3028 RMK A01 T10091043  RH  078%=      5-min Rain = 0
KTA1 201031Z 10006KT M01/M04 A3028 RMK A01 T10101043  RH  078%=      5-min Rain = 0
KTA1 201032Z 10005KT M01/M04 A3029 RMK A01 T10091042  RH  079%=      5-min Rain = 0
KTA1 201033Z 10006KT M01/M04 A3028 RMK A01 T10091041  RH  079%=      5-min Rain = 0
KTA1 201034Z 10006KT M01/M04 A3028 RMK A01 T10081041  RH  079%=      5-min Rain = 0
KTA1 201035Z 10006KT M01/M04 A3028 RMK A01 T10071040  RH  078%=      5-min Rain = 0
KTA1 201036Z 10006KT M01/M04 A3028 RMK A01 T10071041  RH  078%=      5-min Rain = 0
KTA1 201037Z 11006KT M01/M04 A3028 RMK A01 T10071041  RH  078%=      5-min Rain = 0
KTA1 201038Z 11006KT M01/M04 A3028 RMK A01 T10071041  RH  078%=      5-min Rain = 0
KTA1 201039Z 12006KT M01/M04 A3028 RMK A01 T10071041  RH  078%=      5-min Rain = 0
KTA1 201040Z 12006KT M01/M04 A3028 RMK A01 T10071041  RH  078%=      5-min Rain = 0
KTA1 201041Z 12006KT M01/M04 A3028 RMK A01 T10081041  RH  078%=      5-min Rain = 0
KTA1 201042Z 12006KT M01/M04 A3028 RMK A01 T10081042  RH  078%=      5-min Rain = 0
KTA1 201043Z 12006KT M01/M04 A3029 RMK A01 T10081041  RH  078%=      5-min Rain = 0
KTA1 201044Z 12006KT M01/M04 A3029 RMK A01 T10071040  RH  078%=      5-min Rain = 0
KTA1 201045Z 12006KT M01/M04 A3029 RMK A01 T10061040  RH  078%=      5-min Rain = 0
KTA1 201046Z 12006KT M01/M04 A3029 RMK A01 T10061040  RH  078%=      5-min Rain = 0
KTA1 201047Z 12006KT M01/M04 A3029 RMK A01 T10061040  RH  078%=      5-min Rain = 0
KTA1 201048Z 12006KT M01/M04 A3029 RMK A01 T10061040  RH  078%=      5-min Rain = 0
KTA1 201049Z 12006KT M01/M04 A3029 RMK A01 T10061040  RH  078%=      5-min Rain = 0
KTA1 201050Z 12006KT M01/M04 A3029 RMK A01 T10051040  RH  078%=      5-min Rain = 0
KTA1 201051Z 12006KT M01/M04 A3029 RMK A01 T10051040  RH  078%=      5-min Rain = 0
KTA1 201052Z 12006KT M01/M04 A3029 RMK A01 T10051040  RH  078%=      5-min Rain = 0
KTA1 201053Z 12006KT M01/M04 A3029 RMK A01 T10051040  RH  078%=      5-min Rain = 0
KTA1 201054Z 12006KT M01/M04 A3028 RMK A01 T10051039  RH  078%=      5-min Rain = 0
KTA1 201055Z 12006KT M01/M04 A3028 RMK A01 T10051039  RH  078%=      5-min Rain = 0
KTA1 201056Z 12006KT M01/M04 A3028 RMK A01 T10051038  RH  078%=      5-min Rain = 0
KTA1 201057Z 12006KT M01/M04 A3028 RMK A01 T10051038  RH  078%=      5-min Rain = 0
KTA1 201058Z 13006KT M01/M04 A3028 RMK A01 T10051038  RH  078%=      5-min Rain = 0
KTA1 201059Z 12006KT M01/M04 A3028 RMK A01 T10051038  RH  078%=      5-min Rain = 0
KTA1 201100Z 12006KT M01/M04 A3028 RMK A01 T10051038  RH  079%=      5-min Rain = 0
KTA1 201101Z 13006KT M01/M04 A3028 RMK A01 T10051038  RH  079%=      5-min Rain = 0
KTA1 201102Z 13006KT M01/M04 A3028 RMK A01 T10061038  RH  079%=      5-min Rain = 0
KTA1 201103Z 12006KT M01/M04 A3028 RMK A01 T10061038  RH  079%=      5-min Rain = 0
KTA1 201104Z 12006KT M01/M04 A3028 RMK A01 T10061038  RH  079%=      5-min Rain = 0
KTA1 201105Z 12006KT M01/M04 A3028 RMK A01 T10061038  RH  079%=      5-min Rain = 0
KTA1 201106Z 12006KT M01/M04 A3028 RMK A01 T10061038  RH  079%=      5-min Rain = 0
KTA1 201107Z 12005KT M01/M04 A3028 RMK A01 T10071038  RH  079%=      5-min Rain = 0
KTA1 201108Z 12005KT M01/M04 A3028 RMK A01 T10071039  RH  079%=      5-min Rain = 0
KTA1 201109Z 12005KT M01/M04 A3028 RMK A01 T10081039  RH  079%=      5-min Rain = 0
KTA1 201110Z 12005KT M01/M04 A3028 RMK A01 T10081040  RH  079%=      5-min Rain = 0
KTA1 201111Z 12005KT M01/M04 A3028 RMK A01 T10091040  RH  079%=      5-min Rain = 0
KTA1 201112Z 12005KT M01/M04 A3028 RMK A01 T10091040  RH  080%=      5-min Rain = 0
KTA1 201113Z 12005KT M01/M04 A3028 RMK A01 T10091040  RH  080%=      5-min Rain = 0
KTA1 201114Z 12005KT M01/M04 A3028 RMK A01 T10091040  RH  080%=      5-min Rain = 0
KTA1 201115Z 12005KT M01/M04 A3028 RMK A01 T10091039  RH  080%=      5-min Rain = 0
KTA1 201116Z 13005KT M01/M04 A3028 RMK A01 T10091039  RH  080%=      5-min Rain = 0
KTA1 201117Z 13005KT M01/M04 A3028 RMK A01 T10101040  RH  080%=      5-min Rain = 0
KTA1 201118Z 13005KT M01/M04 A3028 RMK A01 T10101039  RH  080%=      5-min Rain = 0
KTA1 201119Z 13005KT M01/M04 A3028 RMK A01 T10101039  RH  081%=      5-min Rain = 0
KTA1 201120Z 12005KT M01/M04 A3027 RMK A01 T10101039  RH  081%=      5-min Rain = 0
KTA1 201121Z 12005KT M01/M04 A3027 RMK A01 T10101039  RH  081%=      5-min Rain = 0
KTA1 201122Z 12005KT M01/M04 A3027 RMK A01 T10091038  RH  081%=      5-min Rain = 0
KTA1 201123Z 12005KT M01/M04 A3027 RMK A01 T10081038  RH  081%=      5-min Rain = 0
KTA1 201124Z 12005KT M01/M04 A3027 RMK A01 T10081038  RH  080%=      5-min Rain = 0
KTA1 201125Z 12005KT M01/M04 A3027 RMK A01 T10081038  RH  080%=      5-min Rain = 0
KTA1 201126Z 12005KT M01/M04 A3027 RMK A01 T10081038  RH  080%=      5-min Rain = 0
KTA1 201127Z 12005KT M01/M04 A3027 RMK A01 T10081038  RH  080%=      5-min Rain = 0
KTA1 201128Z 12005KT M01/M04 A3027 RMK A01 T10081038  RH  080%=      5-min Rain = 0
KTA1 201129Z 12005KT M01/M04 A3027 RMK A01 T10071038  RH  080%=      5-min Rain = 0
KTA1 201130Z 12005KT M01/M04 A3027 RMK A01 T10081039  RH  080%=      5-min Rain = 0
KTA1 201131Z 12005KT M01/M04 A3027 RMK A01 T10081039  RH  080%=      5-min Rain = 0
KTA1 201132Z 12005KT M01/M04 A3027 RMK A01 T10081039  RH  080%=      5-min Rain = 0
KTA1 201133Z 12005KT M01/M04 A3027 RMK A01 T10081039  RH  080%=      5-min Rain = 0
KTA1 201134Z 12005KT M01/M04 A3027 RMK A01 T10091039  RH  080%=      5-min Rain = 0
KTA1 201135Z 12005KT M01/M04 A3027 RMK A01 T10091039  RH  080%=      5-min Rain = 0
KTA1 201136Z 12005KT M01/M04 A3027 RMK A01 T10101040  RH  080%=      5-min Rain = 0
KTA1 201137Z 12005KT M01/M04 A3027 RMK A01 T10101040  RH  080%=      5-min Rain = 0
KTA1 201138Z 13005KT M01/M04 A3027 RMK A01 T10101040  RH  080%=      5-min Rain = 0
KTA1 201139Z 13005KT M01/M04 A3027 RMK A01 T10101040  RH  080%=      5-min Rain = 0
KTA1 201140Z 13005KT M01/M04 A3027 RMK A01 T10101040  RH  080%=      5-min Rain = 0
KTA1 201141Z 13005KT M01/M04 A3027 RMK A01 T10101039  RH  080%=      5-min Rain = 0
KTA1 201142Z 13005KT M01/M04 A3027 RMK A01 T10101039  RH  080%=      5-min Rain = 0
KTA1 201143Z 13005KT M01/M04 A3027 RMK A01 T10101039  RH  081%=      5-min Rain = 0
KTA1 201144Z 13005KT M01/M04 A3028 RMK A01 T10101039  RH  081%=      5-min Rain = 0
KTA1 201145Z 13005KT M01/M04 A3028 RMK A01 T10101039  RH  081%=      5-min Rain = 0
KTA1 201146Z 13005KT M01/M04 A3028 RMK A01 T10101039  RH  081%=      5-min Rain = 0
KTA1 201147Z 13005KT M01/M04 A3028 RMK A01 T10101039  RH  081%=      5-min Rain = 0
KTA1 201148Z 13005KT M01/M04 A3028 RMK A01 T10101039  RH  080%=      5-min Rain = 0
KTA1 201149Z 13005KT M01/M04 A3028 RMK A01 T10101040  RH  080%=      5-min Rain = 0
KTA1 201150Z 13005KT M01/M04 A3028 RMK A01 T10101040  RH  080%=      5-min Rain = 0
KTA1 201151Z 13005KT M01/M04 A3028 RMK A01 T10101040  RH  080%=      5-min Rain = 0
KTA1 201152Z 13005KT M01/M04 A3028 RMK A01 T10101039  RH  080%=      5-min Rain = 0
KTA1 201153Z 13005KT M01/M04 A3028 RMK A01 T10091039  RH  080%=      5-min Rain = 0
KTA1 201154Z 13005KT M01/M04 A3027 RMK A01 T10091039  RH  080%=      5-min Rain = 0
KTA1 201155Z 13005KT M01/M04 A3027 RMK A01 T10091039  RH  080%=      5-min Rain = 0
KTA1 201156Z 13005KT M01/M04 A3027 RMK A01 T10091039  RH  080%=      5-min Rain = 0
KTA1 201157Z 13005KT M01/M04 A3028 RMK A01 T10091039  RH  080%=      5-min Rain = 0
KTA1 201158Z 13005KT M01/M04 A3028 RMK A01 T10091039  RH  080%=      5-min Rain = 0
KTA1 201159Z 13005KT M01/M04 A3028 RMK A01 T10091039  RH  080%=      5-min Rain = 0
KTA1 201200Z 13005KT M01/M04 A3027 RMK A01 T10081039  RH  080%=      5-min Rain = 0
KTA1 201201Z 12006KT M01/M04 A3027 RMK A01 T10081039  RH  080%=      5-min Rain = 0
KTA1 201202Z 12006KT M01/M04 A3027 RMK A01 T10081038  RH  080%=      5-min Rain = 0
KTA1 201203Z 12006KT M01/M04 A3027 RMK A01 T10061038  RH  079%=      5-min Rain = 0
KTA1 201204Z 13005KT M01/M04 A3027 RMK A01 T10061038  RH  079%=      5-min Rain = 0
KTA1 201205Z 12005KT M01/M04 A3027 RMK A01 T10061038  RH  079%=      5-min Rain = 0
KTA1 201206Z 13005KT M01/M04 A3027 RMK A01 T10061039  RH  079%=      5-min Rain = 0
KTA1 201207Z 13005KT M01/M04 A3027 RMK A01 T10071040  RH  078%=      5-min Rain = 0
KTA1 201208Z 13006KT M01/M04 A3027 RMK A01 T10081040  RH  079%=      5-min Rain = 0
KTA1 201209Z 13005KT M01/M04 A3027 RMK A01 T10081040  RH  079%=      5-min Rain = 0
KTA1 201210Z 13005KT M01/M04 A3027 RMK A01 T10081040  RH  079%=      5-min Rain = 0
KTA1 201211Z 13006KT M01/M04 A3027 RMK A01 T10081040  RH  079%=      5-min Rain = 0
KTA1 201212Z 13006KT M01/M04 A3027 RMK A01 T10081040  RH  079%=      5-min Rain = 0
KTA1 201213Z 13005KT M01/M04 A3027 RMK A01 T10081040  RH  079%=      5-min Rain = 0
KTA1 201214Z 13006KT M01/M04 A3027 RMK A01 T10081040  RH  079%=      5-min Rain = 0
KTA1 201215Z 13005KT M01/M04 A3027 RMK A01 T10081039  RH  079%=      5-min Rain = 0
KTA1 201216Z 13006KT M01/M04 A3027 RMK A01 T10081039  RH  079%=      5-min Rain = 0
KTA1 201217Z 13006KT M01/M04 A3027 RMK A01 T10071039  RH  079%=      5-min Rain = 0
KTA1 201218Z 13006KT M01/M04 A3026 RMK A01 T10071039  RH  079%=      5-min Rain = 0
KTA1 201219Z 13006KT M01/M04 A3026 RMK A01 T10071039  RH  079%=      5-min Rain = 0
KTA1 201220Z 13006KT M01/M04 A3026 RMK A01 T10071038  RH  079%=      5-min Rain = 0
KTA1 201221Z 12006KT M01/M04 A3026 RMK A01 T10071038  RH  079%=      5-min Rain = 0
KTA1 201222Z 13006KT M01/M04 A3026 RMK A01 T10071038  RH  079%=      5-min Rain = 0
KTA1 201223Z 13006KT M01/M04 A3026 RMK A01 T10071038  RH  079%=      5-min Rain = 0
KTA1 201224Z 13006KT M01/M04 A3026 RMK A01 T10061038  RH  079%=      5-min Rain = 0
KTA1 201225Z 13006KT M01/M04 A3026 RMK A01 T10061037  RH  079%=      5-min Rain = 0
KTA1 201226Z 13006KT M01/M04 A3026 RMK A01 T10061037  RH  080%=      5-min Rain = 0
KTA1 201227Z 14006KT M01/M04 A3026 RMK A01 T10051036  RH  080%=      5-min Rain = 0
KTA1 201228Z 14006KT M01/M04 A3026 RMK A01 T10051036  RH  079%=      5-min Rain = 0
KTA1 201229Z 14006KT M00/M04 A3026 RMK A01 T10041036  RH  079%=      5-min Rain = 0
KTA1 201230Z 14006KT M00/M04 A3026 RMK A01 T10041035  RH  079%=      5-min Rain = 0
KTA1 201231Z 14006KT M00/M04 A3026 RMK A01 T10041035  RH  079%=      5-min Rain = 0
KTA1 201232Z 14006KT M00/M04 A3026 RMK A01 T10041035  RH  079%=      5-min Rain = 0
KTA1 201233Z 14005KT M00/M04 A3026 RMK A01 T10041035  RH  079%=      5-min Rain = 0
KTA1 201234Z 14005KT M00/M04 A3026 RMK A01 T10031035  RH  079%=      5-min Rain = 0
KTA1 201235Z 13005KT M00/M04 A3027 RMK A01 T10041035  RH  079%=      5-min Rain = 0
KTA1 201236Z 13005KT M00/M04 A3027 RMK A01 T10041035  RH  079%=      5-min Rain = 0
KTA1 201237Z 14006KT M00/M04 A3027 RMK A01 T10041035  RH  079%=      5-min Rain = 0
KTA1 201238Z 14005KT M01/M04 A3027 RMK A01 T10051035  RH  080%=      5-min Rain = 0
KTA1 201239Z 14006KT M01/M04 A3027 RMK A01 T10051035  RH  080%=      5-min Rain = 0
KTA1 201240Z 14006KT M01/M04 A3026 RMK A01 T10051036  RH  080%=      5-min Rain = 0
KTA1 201241Z 14005KT M01/M04 A3026 RMK A01 T10051035  RH  080%=      5-min Rain = 0
KTA1 201242Z 14005KT M01/M04 A3026 RMK A01 T10051036  RH  080%=      5-min Rain = 0
KTA1 201243Z 14006KT M01/M04 A3026 RMK A01 T10061036  RH  080%=      5-min Rain = 0
KTA1 201244Z 14006KT M01/M04 A3026 RMK A01 T10061035  RH  080%=      5-min Rain = 0
KTA1 201245Z 14006KT M01/M04 A3026 RMK A01 T10061036  RH  080%=      5-min Rain = 0
KTA1 201246Z 14006KT M01/M04 A3026 RMK A01 T10061036  RH  080%=      5-min Rain = 0
KTA1 201247Z 14006KT M01/M04 A3026 RMK A01 T10071036  RH  080%=      5-min Rain = 0
KTA1 201248Z 14006KT M01/M04 A3026 RMK A01 T10071036  RH  081%=      5-min Rain = 0
KTA1 201249Z 14006KT M01/M04 A3026 RMK A01 T10071036  RH  081%=      5-min Rain = 0
KTA1 201250Z 14006KT M01/M04 A3026 RMK A01 T10081036  RH  081%=      5-min Rain = 0
KTA1 201251Z 14006KT M01/M04 A3027 RMK A01 T10081036  RH  081%=      5-min Rain = 0
KTA1 201252Z 14006KT M01/M04 A3027 RMK A01 T10081036  RH  081%=      5-min Rain = 0
KTA1 201253Z 14006KT M01/M04 A3027 RMK A01 T10081036  RH  081%=      5-min Rain = 0
KTA1 201254Z 14006KT M01/M04 A3027 RMK A01 T10081036  RH  081%=      5-min Rain = 0
KTA1 201255Z 14006KT M01/M04 A3027 RMK A01 T10081036  RH  081%=      5-min Rain = 0
KTA1 201256Z 14006KT M01/M04 A3027 RMK A01 T10071036  RH  081%=      5-min Rain = 0
KTA1 201257Z 13005KT M01/M04 A3027 RMK A01 T10071036  RH  081%=      5-min Rain = 0
KTA1 201258Z 14006KT M01/M04 A3027 RMK A01 T10071036  RH  081%=      5-min Rain = 0
KTA1 201259Z 14006KT M01/M04 A3027 RMK A01 T10071036  RH  081%=      5-min Rain = 0
KTA1 201300Z 14006KT M01/M04 A3027 RMK A01 T10071036  RH  081%=      5-min Rain = 0
KTA1 201301Z 14006KT M01/M04 A3027 RMK A01 T10071036  RH  081%=      5-min Rain = 0
KTA1 201302Z 14007KT M01/M04 A3027 RMK A01 T10061036  RH  080%=      5-min Rain = 0
KTA1 201303Z 14006KT M01/M04 A3027 RMK A01 T10061036  RH  080%=      5-min Rain = 0
KTA1 201304Z 14006KT M01/M04 A3027 RMK A01 T10061036  RH  080%=      5-min Rain = 0
KTA1 201305Z 14007KT M01/M04 A3027 RMK A01 T10061036  RH  080%=      5-min Rain = 0
KTA1 201306Z 14006KT M01/M04 A3027 RMK A01 T10061036  RH  080%=      5-min Rain = 0
KTA1 201307Z 14007KT M01/M04 A3027 RMK A01 T10051036  RH  080%=      5-min Rain = 0
KTA1 201308Z 14007KT M01/M04 A3027 RMK A01 T10051035  RH  080%=      5-min Rain = 0
KTA1 201309Z 15007KT M01/M04 A3027 RMK A01 T10051036  RH  080%=      5-min Rain = 0
KTA1 201310Z 15007KT M00/M04 A3027 RMK A01 T10041036  RH  079%=      5-min Rain = 0
KTA1 201311Z 14008KT M00/M04 A3027 RMK A01 T10041036  RH  079%=      5-min Rain = 0
KTA1 201312Z 14007KT M00/M04 A3027 RMK A01 T10031035  RH  079%=      5-min Rain = 0
KTA1 201313Z 14008KT M00/M04 A3027 RMK A01 T10031036  RH  079%=      5-min Rain = 0
KTA1 201314Z 15007KT M00/M04 A3027 RMK A01 T10031036  RH  079%=      5-min Rain = 0
KTA1 201315Z 15007KT M00/M04 A3027 RMK A01 T10031036  RH  078%=      5-min Rain = 0
KTA1 201316Z 15007KT M00/M04 A3027 RMK A01 T10031036  RH  078%=      5-min Rain = 0
KTA1 201317Z 14007KT M00/M04 A3027 RMK A01 T10031036  RH  078%=      5-min Rain = 0
KTA1 201318Z 14008KT M00/M04 A3027 RMK A01 T10031036  RH  078%=      5-min Rain = 0
KTA1 201319Z 15008KT M00/M04 A3027 RMK A01 T10031036  RH  078%=      5-min Rain = 0
KTA1 201320Z 14008KT M00/M04 A3027 RMK A01 T10031036  RH  078%=      5-min Rain = 0
KTA1 201321Z 15009KT M00/M04 A3027 RMK A01 T10031036  RH  078%=      5-min Rain = 0
KTA1 201322Z 15008KT M00/M04 A3027 RMK A01 T10031036  RH  078%=      5-min Rain = 0
KTA1 201323Z 15008KT M00/M04 A3027 RMK A01 T10031037  RH  078%=      5-min Rain = 0
KTA1 201324Z 15009KT M00/M04 A3027 RMK A01 T10031037  RH  078%=      5-min Rain = 0
KTA1 201325Z 15009KT M00/M04 A3027 RMK A01 T10031037  RH  078%=      5-min Rain = 0
KTA1 201326Z 15008KT M00/M04 A3027 RMK A01 T10021037  RH  077%=      5-min Rain = 0
KTA1 201327Z 15009KT M00/M04 A3027 RMK A01 T10021037  RH  077%=      5-min Rain = 0
KTA1 201328Z 15008KT M00/M04 A3027 RMK A01 T10021037  RH  077%=      5-min Rain = 0
KTA1 201329Z 15009KT M00/M04 A3027 RMK A01 T10011037  RH  077%=      5-min Rain = 0
KTA1 201330Z 15009KT M00/M04 A3027 RMK A01 T10011037  RH  077%=      5-min Rain = 0
KTA1 201331Z 15008KT M00/M04 A3027 RMK A01 T10011037  RH  077%=      5-min Rain = 0
KTA1 201332Z 15008KT M00/M04 A3027 RMK A01 T10011037  RH  077%=      5-min Rain = 0
KTA1 201333Z 15008KT M00/M04 A3027 RMK A01 T10021037  RH  077%=      5-min Rain = 0
KTA1 201334Z 15009KT M00/M04 A3027 RMK A01 T10021037  RH  077%=      5-min Rain = 0
KTA1 201335Z 15008KT M00/M04 A3027 RMK A01 T10021037  RH  077%=      5-min Rain = 0
KTA1 201336Z 15009KT M00/M04 A3027 RMK A01 T10021037  RH  077%=      5-min Rain = 0
KTA1 201337Z 15008KT M00/M04 A3027 RMK A01 T10031037  RH  077%=      5-min Rain = 0
KTA1 201338Z 15009KT M00/M04 A3027 RMK A01 T10031037  RH  077%=      5-min Rain = 0
KTA1 201339Z 15008KT M00/M04 A3027 RMK A01 T10031038  RH  077%=      5-min Rain = 0
KTA1 201340Z 15008KT M00/M04 A3027 RMK A01 T10031037  RH  077%=      5-min Rain = 0
KTA1 201341Z 14008KT M00/M04 A3027 RMK A01 T10031037  RH  077%=      5-min Rain = 0
KTA1 201342Z 14008KT M00/M04 A3027 RMK A01 T10031038  RH  078%=      5-min Rain = 0
KTA1 201343Z 14008KT M00/M04 A3027 RMK A01 T10041038  RH  078%=      5-min Rain = 0
KTA1 201344Z 14007KT M00/M04 A3027 RMK A01 T10041038  RH  078%=      5-min Rain = 0
KTA1 201345Z 14007KT M00/M04 A3027 RMK A01 T10041038  RH  078%=      5-min Rain = 0
KTA1 201346Z 14007KT M01/M04 A3027 RMK A01 T10051038  RH  078%=      5-min Rain = 0
KTA1 201347Z 15007KT M01/M04 A3027 RMK A01 T10051038  RH  078%=      5-min Rain = 0
KTA1 201348Z 15008KT M01/M04 A3027 RMK A01 T10051038  RH  078%=      5-min Rain = 0
KTA1 201349Z 14008KT M01/M04 A3027 RMK A01 T10051037  RH  079%=      5-min Rain = 0
KTA1 201350Z 15008KT M01/M04 A3027 RMK A01 T10051037  RH  078%=      5-min Rain = 0
KTA1 201351Z 15009KT M01/M04 A3027 RMK A01 T10051038  RH  078%=      5-min Rain = 0
KTA1 201352Z 15009KT M00/M04 A3027 RMK A01 T10041038  RH  078%=      5-min Rain = 0
KTA1 201353Z 15009KT M00/M04 A3027 RMK A01 T10041038  RH  078%=      5-min Rain = 0
KTA1 201354Z 15009KT M00/M04 A3027 RMK A01 T10041038  RH  078%=      5-min Rain = 0
KTA1 201355Z 15008KT M00/M04 A3027 RMK A01 T10041038  RH  078%=      5-min Rain = 0
KTA1 201356Z 14008KT M00/M04 A3027 RMK A01 T10041038  RH  078%=      5-min Rain = 0
KTA1 201357Z 14008KT M00/M04 A3027 RMK A01 T10041038  RH  078%=      5-min Rain = 0
KTA1 201358Z 15008KT M00/M04 A3027 RMK A01 T10041038  RH  078%=      5-min Rain = 0
KTA1 201359Z 14008KT M00/M04 A3027 RMK A01 T10041038  RH  078%=      5-min Rain = 0
KTA1 201400Z 14008KT M00/M04 A3027 RMK A01 T10041037  RH  078%=      5-min Rain = 0
KTA1 201401Z 15007KT M00/M04 A3027 RMK A01 T10041038  RH  078%=      5-min Rain = 0
KTA1 201402Z 14007KT M00/M04 A3027 RMK A01 T10041038  RH  078%=      5-min Rain = 0
KTA1 201403Z 14006KT M01/M04 A3027 RMK A01 T10051038  RH  078%=      5-min Rain = 0
KTA1 201404Z 14007KT M01/M04 A3027 RMK A01 T10051038  RH  078%=      5-min Rain = 0
KTA1 201405Z 14007KT M01/M04 A3027 RMK A01 T10051038  RH  078%=      5-min Rain = 0
KTA1 201406Z 15007KT M01/M04 A3027 RMK A01 T10051038  RH  079%=      5-min Rain = 0
KTA1 201407Z 14007KT M01/M04 A3027 RMK A01 T10051038  RH  079%=      5-min Rain = 0
KTA1 201408Z 14007KT M01/M04 A3027 RMK A01 T10051038  RH  079%=      5-min Rain = 0
KTA1 201409Z 15006KT M01/M04 A3028 RMK A01 T10051038  RH  079%=      5-min Rain = 0
KTA1 201410Z 15006KT M01/M04 A3028 RMK A01 T10051038  RH  079%=      5-min Rain = 0
KTA1 201411Z 15006KT M01/M04 A3028 RMK A01 T10051038  RH  079%=      5-min Rain = 0
KTA1 201412Z 15006KT M01/M04 A3028 RMK A01 T10051038  RH  079%=      5-min Rain = 0
KTA1 201413Z 15006KT M01/M04 A3028 RMK A01 T10051037  RH  079%=      5-min Rain = 0
KTA1 201414Z 15006KT M01/M04 A3028 RMK A01 T10051037  RH  079%=      5-min Rain = 0
KTA1 201415Z 15005KT M01/M04 A3028 RMK A01 T10061038  RH  079%=      5-min Rain = 0
KTA1 201416Z 15006KT M01/M04 A3028 RMK A01 T10051037  RH  079%=      5-min Rain = 0
KTA1 201417Z 15006KT M01/M04 A3028 RMK A01 T10051037  RH  079%=      5-min Rain = 0
KTA1 201418Z 16006KT M01/M04 A3028 RMK A01 T10051038  RH  079%=      5-min Rain = 0
KTA1 201419Z 15006KT M01/M04 A3028 RMK A01 T10051038  RH  079%=      5-min Rain = 0
KTA1 201420Z 15006KT M01/M04 A3028 RMK A01 T10051038  RH  079%=      5-min Rain = 0
KTA1 201421Z 15007KT M01/M04 A3028 RMK A01 T10051037  RH  079%=      5-min Rain = 0
KTA1 201422Z 15007KT M01/M04 A3028 RMK A01 T10051038  RH  079%=      5-min Rain = 0
KTA1 201423Z 16007KT M01/M04 A3028 RMK A01 T10051037  RH  078%=      5-min Rain = 0
KTA1 201424Z 16007KT M00/M04 A3028 RMK A01 T10041037  RH  078%=      5-min Rain = 0
KTA1 201425Z 16007KT M00/M04 A3028 RMK A01 T10041038  RH  078%=      5-min Rain = 0
KTA1 201426Z 16007KT M00/M04 A3028 RMK A01 T10041037  RH  078%=      5-min Rain = 0
KTA1 201427Z 16008KT M00/M04 A3028 RMK A01 T10031037  RH  078%=      5-min Rain = 0
KTA1 201428Z 16007KT M00/M04 A3028 RMK A01 T10031037  RH  078%=      5-min Rain = 0
KTA1 201429Z 16007KT M00/M04 A3028 RMK A01 T10021036  RH  077%=      5-min Rain = 0
KTA1 201430Z 16007KT M00/M04 A3028 RMK A01 T10011037  RH  077%=      5-min Rain = 0
KTA1 201431Z 16007KT M00/M04 A3028 RMK A01 T10011036  RH  077%=      5-min Rain = 0
KTA1 201432Z 16007KT 00/04 A3028 RMK A01 T00-00-37  RH  076%=      5-min Rain = 0
KTA1 201433Z 16007KT 00/M04 A3028 RMK A01 T00011036  RH  076%=      5-min Rain = 0
KTA1 201434Z 16007KT 00/M04 A3027 RMK A01 T00011037  RH  076%=      5-min Rain = 0
KTA1 201435Z 16006KT 00/M04 A3028 RMK A01 T00021036  RH  076%=      5-min Rain = 0
KTA1 201436Z 16007KT 00/M04 A3028 RMK A01 T00031035  RH  075%=      5-min Rain = 0
KTA1 201437Z 15008KT 00/M04 A3027 RMK A01 T00041036  RH  075%=      5-min Rain = 0
KTA1 201438Z 16008KT 01/M04 A3028 RMK A01 T00051036  RH  074%=      5-min Rain = 0
KTA1 201439Z 16007KT 01/M04 A3028 RMK A01 T00051035  RH  074%=      5-min Rain = 0
KTA1 201440Z 16008KT 01/M04 A3027 RMK A01 T00061035  RH  074%=      5-min Rain = 0
KTA1 201441Z 16008KT 01/M04 A3027 RMK A01 T00061035  RH  074%=      5-min Rain = 0
KTA1 201442Z 16007KT 01/M03 A3027 RMK A01 T00081034  RH  073%=      5-min Rain = 0
KTA1 201443Z 15009KT 01/M04 A3027 RMK A01 T00081035  RH  073%=      5-min Rain = 0
KTA1 201444Z 16009KT 01/M04 A3027 RMK A01 T00091035  RH  073%=      5-min Rain = 0
KTA1 201445Z 15007KT 01/M03 A3027 RMK A01 T00101034  RH  072%=      5-min Rain = 0
KTA1 201446Z 15008KT 01/M03 A3027 RMK A01 T00121033  RH  072%=      5-min Rain = 0
KTA1 201447Z 16010KT 01/M03 A3027 RMK A01 T00121034  RH  071%=      5-min Rain = 0
KTA1 201448Z 16009KT 01/M04 A3027 RMK A01 T00131035  RH  071%=      5-min Rain = 0
KTA1 201449Z 16007KT 01/M03 A3027 RMK A01 T00131034  RH  071%=      5-min Rain = 0
KTA1 201450Z 16009KT 01/M03 A3027 RMK A01 T00141033  RH  071%=      5-min Rain = 0
KTA1 201451Z 16010KT 01/M03 A3027 RMK A01 T00141034  RH  070%=      5-min Rain = 0
KTA1 201452Z 16010KT 01/M03 A3027 RMK A01 T00141034  RH  070%=      5-min Rain = 0
KTA1 201453Z 16010KT 01/M04 A3027 RMK A01 T00141035  RH  070%=      5-min Rain = 0
KTA1 201454Z 16009KT 02/M03 A3027 RMK A01 T00151034  RH  070%=      5-min Rain = 0
KTA1 201455Z 16007KT 02/M03 A3027 RMK A01 T00151034  RH  070%=      5-min Rain = 0
KTA1 201456Z 16009KT 02/M03 A3027 RMK A01 T00161033  RH  070%=      5-min Rain = 0
KTA1 201457Z 16010KT 02/M03 A3027 RMK A01 T00171033  RH  069%=      5-min Rain = 0
KTA1 201458Z 17010KT 02/M03 A3027 RMK A01 T00171034  RH  069%=      5-min Rain = 0
KTA1 201459Z 16010KT 02/M03 A3027 RMK A01 T00171034  RH  069%=      5-min Rain = 0
KTA1 201500Z 16010KT 02/M03 A3027 RMK A01 T00181034  RH  068%=      5-min Rain = 0
KTA1 201501Z 16010KT 02/M03 A3027 RMK A01 T00181034  RH  068%=      5-min Rain = 0
KTA1 201502Z 16008KT 02/M03 A3027 RMK A01 T00191033  RH  068%=      5-min Rain = 0
KTA1 201503Z 17010KT 02/M03 A3027 RMK A01 T00201033  RH  068%=      5-min Rain = 0
KTA1 201504Z 16011KT 02/M03 A3027 RMK A01 T00221033  RH  067%=      5-min Rain = 0
KTA1 201505Z 17008KT 02/M03 A3028 RMK A01 T00221033  RH  067%=      5-min Rain = 0
KTA1 201506Z 17010KT 02/M03 A3028 RMK A01 T00231032  RH  067%=      5-min Rain = 0
KTA1 201507Z 17012KT 02/M03 A3028 RMK A01 T00241032  RH  066%=      5-min Rain = 0
KTA1 201508Z 17012KT 02/M03 A3028 RMK A01 T00231034  RH  066%=      5-min Rain = 0
KTA1 201509Z 17011KT 02/M03 A3028 RMK A01 T00241034  RH  066%=      5-min Rain = 0
KTA1 201510Z 17013KT 02/M03 A3028 RMK A01 T00241033  RH  066%=      5-min Rain = 0
KTA1 201511Z 17012KT 02/M03 A3028 RMK A01 T00241034  RH  066%=      5-min Rain = 0
KTA1 201512Z 16010KT 03/M03 A3028 RMK A01 T00251032  RH  066%=      5-min Rain = 0
KTA1 201513Z 16011KT 03/M03 A3027 RMK A01 T00261032  RH  066%=      5-min Rain = 0
KTA1 201514Z 16011KT 03/M03 A3027 RMK A01 T00271032  RH  065%=      5-min Rain = 0
KTA1 201515Z 16011KT 03/M03 A3028 RMK A01 T00271032  RH  065%=      5-min Rain = 0
KTA1 201516Z 17014KT 03/M03 A3028 RMK A01 T00281032  RH  065%=      5-min Rain = 0
KTA1 201517Z 17010KT 03/M03 A3028 RMK A01 T00281033  RH  064%=      5-min Rain = 0
KTA1 201518Z 17010KT 03/M03 A3028 RMK A01 T00281031  RH  065%=      5-min Rain = 0
KTA1 201519Z 17009KT 03/M03 A3028 RMK A01 T00301030  RH  065%=      5-min Rain = 0
KTA1 201520Z 17011KT 03/M03 A3028 RMK A01 T00301030  RH  064%=      5-min Rain = 0
KTA1 201521Z 17013KT 03/M03 A3027 RMK A01 T00311031  RH  064%=      5-min Rain = 0
KTA1 201522Z 17012KT 03/M03 A3028 RMK A01 T00311031  RH  063%=      5-min Rain = 0
KTA1 201523Z 17010KT 03/M03 A3028 RMK A01 T00301031  RH  064%=      5-min Rain = 0
KTA1 201524Z 17011KT 03/M03 A3028 RMK A01 T00311030  RH  064%=      5-min Rain = 0
KTA1 201525Z 17011KT 03/M03 A3028 RMK A01 T00321031  RH  064%=      5-min Rain = 0
KTA1 201526Z 18012KT 03/M03 A3028 RMK A01 T00321031  RH  063%=      5-min Rain = 0
KTA1 201527Z 18010KT 03/M03 A3028 RMK A01 T00321031  RH  063%=      5-min Rain = 0
KTA1 201528Z 17010KT 03/M03 A3028 RMK A01 T00331030  RH  063%=      5-min Rain = 0
KTA1 201529Z 17011KT 03/M03 A3028 RMK A01 T00331030  RH  063%=      5-min Rain = 0
KTA1 201530Z 18012KT 03/M03 A3028 RMK A01 T00341030  RH  063%=      5-min Rain = 0
KTA1 201531Z 17014KT 03/M03 A3028 RMK A01 T00341031  RH  063%=      5-min Rain = 0
KTA1 201532Z 17014KT 03/M03 A3028 RMK A01 T00341031  RH  063%=      5-min Rain = 0
KTA1 201533Z 18011KT 03/M03 A3028 RMK A01 T00331031  RH  063%=      5-min Rain = 0
KTA1 201534Z 17011KT 03/M03 A3028 RMK A01 T00331030  RH  063%=      5-min Rain = 0
KTA1 201535Z 17012KT 03/M03 A3028 RMK A01 T00341031  RH  063%=      5-min Rain = 0
KTA1 201536Z 16012KT 04/M03 A3028 RMK A01 T00351030  RH  062%=      5-min Rain = 0
KTA1 201537Z 16012KT 04/M03 A3028 RMK A01 T00351031  RH  062%=      5-min Rain = 0
KTA1 201538Z 16011KT 04/M03 A3028 RMK A01 T00361030  RH  062%=      5-min Rain = 0
KTA1 201539Z 17011KT 04/M03 A3028 RMK A01 T00361029  RH  062%=      5-min Rain = 0
KTA1 201540Z 17011KT 04/M03 A3027 RMK A01 T00371029  RH  062%=      5-min Rain = 0
KTA1 201541Z 17010KT 04/M03 A3028 RMK A01 T00371029  RH  062%=      5-min Rain = 0
KTA1 201542Z 17013KT 04/M03 A3028 RMK A01 T00381028  RH  062%=      5-min Rain = 0
KTA1 201543Z 18012KT 04/M03 A3027 RMK A01 T00381029  RH  061%=      5-min Rain = 0
KTA1 201544Z 18012KT 04/M03 A3028 RMK A01 T00381030  RH  061%=      5-min Rain = 0
KTA1 201545Z 18012KT 04/M03 A3028 RMK A01 T00381029  RH  062%=      5-min Rain = 0
KTA1 201546Z 17011KT 04/M03 A3028 RMK A01 T00391029  RH  061%=      5-min Rain = 0
KTA1 201547Z 18013KT 04/M03 A3028 RMK A01 T00391028  RH  061%=      5-min Rain = 0
KTA1 201548Z 17013KT 04/M03 A3028 RMK A01 T00401028  RH  061%=      5-min Rain = 0
KTA1 201549Z 17014KT 04/M03 A3027 RMK A01 T00411029  RH  061%=      5-min Rain = 0
KTA1 201550Z 17012KT 04/M03 A3027 RMK A01 T00411028  RH  060%=      5-min Rain = 0
KTA1 201551Z 16013KT 04/M03 A3027 RMK A01 T00431027  RH  060%=      5-min Rain = 0
KTA1 201552Z 16012KT 04/M03 A3027 RMK A01 T00441028  RH  060%=      5-min Rain = 0
KTA1 201553Z 17014KT 05/M03 A3027 RMK A01 T00451027  RH  060%=      5-min Rain = 0
KTA1 201554Z 17012KT 05/M03 A3027 RMK A01 T00451028  RH  059%=      5-min Rain = 0
KTA1 201555Z 17012KT 05/M03 A3027 RMK A01 T00451027  RH  059%=      5-min Rain = 0
KTA1 201556Z 17011KT 05/M03 A3028 RMK A01 T00471025  RH  059%=      5-min Rain = 0
KTA1 201557Z 18011KT 05/M03 A3028 RMK A01 T00481025  RH  059%=      5-min Rain = 0
KTA1 201558Z 17012KT 05/M03 A3028 RMK A01 T00491025  RH  059%=      5-min Rain = 0
KTA1 201559Z 17010KT 05/M03 A3028 RMK A01 T00491026  RH  058%=      5-min Rain = 0
KTA1 201600Z 18009KT 05/M03 A3028 RMK A01 T00491025  RH  058%=      5-min Rain = 0
KTA1 201601Z 18011KT 05/M02 A3028 RMK A01 T00511024  RH  058%=      5-min Rain = 0
KTA1 201602Z 17011KT 05/M03 A3028 RMK A01 T00521025  RH  058%=      5-min Rain = 0
KTA1 201603Z 17010KT 05/M03 A3028 RMK A01 T00521025  RH  058%=      5-min Rain = 0
KTA1 201604Z 18012KT 05/M02 A3028 RMK A01 T00541024  RH  057%=      5-min Rain = 0
KTA1 201605Z 18011KT 06/M03 A3028 RMK A01 T00551025  RH  057%=      5-min Rain = 0
KTA1 201606Z 18011KT 06/M03 A3028 RMK A01 T00551025  RH  056%=      5-min Rain = 0
KTA1 201607Z 18010KT 06/M03 A3028 RMK A01 T00551025  RH  056%=      5-min Rain = 0
KTA1 201608Z 17010KT 06/M02 A3028 RMK A01 T00551024  RH  057%=      5-min Rain = 0
KTA1 201609Z 17010KT 06/M02 A3028 RMK A01 T00571022  RH  057%=      5-min Rain = 0
KTA1 201610Z 17012KT 06/M02 A3027 RMK A01 T00581023  RH  056%=      5-min Rain = 0
KTA1 201611Z 18013KT 06/M02 A3027 RMK A01 T00581024  RH  056%=      5-min Rain = 0
KTA1 201612Z 18013KT 06/M02 A3027 RMK A01 T00581024  RH  056%=      5-min Rain = 0
KTA1 201613Z 18010KT 06/M02 A3027 RMK A01 T00581024  RH  055%=      5-min Rain = 0
KTA1 201614Z 18011KT 06/M02 A3027 RMK A01 T00591024  RH  055%=      5-min Rain = 0
KTA1 201615Z 18011KT 06/M02 A3027 RMK A01 T00601024  RH  055%=      5-min Rain = 0
KTA1 201616Z 18011KT 06/M02 A3027 RMK A01 T00611023  RH  055%=      5-min Rain = 0
KTA1 201617Z 18011KT 06/M02 A3027 RMK A01 T00621023  RH  054%=      5-min Rain = 0
KTA1 201618Z 18011KT 06/M02 A3027 RMK A01 T00631023  RH  054%=      5-min Rain = 0
KTA1 201619Z 17011KT 06/M02 A3027 RMK A01 T00631023  RH  054%=      5-min Rain = 0
KTA1 201620Z 17012KT 06/M02 A3027 RMK A01 T00631022  RH  054%=      5-min Rain = 0
KTA1 201621Z 17011KT 06/M02 A3027 RMK A01 T00641023  RH  054%=      5-min Rain = 0
KTA1 201622Z 17011KT 07/M02 A3027 RMK A01 T00651022  RH  054%=      5-min Rain = 0
KTA1 201623Z 17013KT 07/M02 A3027 RMK A01 T00651022  RH  053%=      5-min Rain = 0
KTA1 201624Z 17012KT 07/M02 A3027 RMK A01 T00661023  RH  053%=      5-min Rain = 0
KTA1 201625Z 17013KT 07/M02 A3027 RMK A01 T00661023  RH  053%=      5-min Rain = 0
KTA1 201626Z 17012KT 07/M02 A3026 RMK A01 T00661024  RH  053%=      5-min Rain = 0
KTA1 201627Z 17010KT 07/M02 A3026 RMK A01 T00661023  RH  053%=      5-min Rain = 0
KTA1 201628Z 17011KT 07/M02 A3026 RMK A01 T00671021  RH  053%=      5-min Rain = 0
KTA1 201629Z 18013KT 07/M02 A3026 RMK A01 T00691021  RH  053%=      5-min Rain = 0
KTA1 201630Z 18014KT 07/M02 A3026 RMK A01 T00701022  RH  052%=      5-min Rain = 0
KTA1 201631Z 16011KT 07/M02 A3026 RMK A01 T00701023  RH  052%=      5-min Rain = 0
KTA1 201632Z 17011KT 07/M02 A3026 RMK A01 T00711021  RH  052%=      5-min Rain = 0
KTA1 201633Z 18009KT 07/M02 A3026 RMK A01 T00721021  RH  052%=      5-min Rain = 0
KTA1 201634Z 18012KT 07/M02 A3026 RMK A01 T00741019  RH  052%=      5-min Rain = 0
KTA1 201635Z 18013KT 08/M02 A3026 RMK A01 T00751022  RH  050%=      5-min Rain = 0
KTA1 201636Z 18013KT 08/M02 A3026 RMK A01 T00751023  RH  050%=      5-min Rain = 0
KTA1 201637Z 18013KT 07/M02 A3026 RMK A01 T00741022  RH  050%=      5-min Rain = 0
KTA1 201638Z 17010KT 07/M02 A3026 RMK A01 T00741022  RH  051%=      5-min Rain = 0
KTA1 201639Z 18013KT 08/M02 A3026 RMK A01 T00751020  RH  051%=      5-min Rain = 0
KTA1 201640Z 17014KT 08/M02 A3026 RMK A01 T00751022  RH  050%=      5-min Rain = 0
KTA1 201641Z 17012KT 08/M02 A3026 RMK A01 T00751021  RH  050%=      5-min Rain = 0
KTA1 201642Z 17014KT 08/M02 A3026 RMK A01 T00761021  RH  050%=      5-min Rain = 0
KTA1 201643Z 17012KT 08/M02 A3026 RMK A01 T00771021  RH  050%=      5-min Rain = 0
KTA1 201644Z 17014KT 08/M02 A3026 RMK A01 T00771021  RH  050%=      5-min Rain = 0
KTA1 201645Z 17012KT 08/M02 A3026 RMK A01 T00781021  RH  050%=      5-min Rain = 0
KTA1 201646Z 17014KT 08/M02 A3026 RMK A01 T00781020  RH  050%=      5-min Rain = 0
KTA1 201647Z 17014KT 08/M02 A3025 RMK A01 T00801020  RH  049%=      5-min Rain = 0
KTA1 201648Z 17015KT 08/M02 A3025 RMK A01 T00801021  RH  049%=      5-min Rain = 0
KTA1 201649Z 17016KT 08/M02 A3025 RMK A01 T00801022  RH  049%=      5-min Rain = 0
KTA1 201650Z 18015KT 08/M02 A3025 RMK A01 T00791024  RH  048%=      5-min Rain = 0
KTA1 201651Z 18013KT 08/M02 A3025 RMK A01 T00781024  RH  048%=      5-min Rain = 0
KTA1 201652Z 18012KT 08/M02 A3025 RMK A01 T00781023  RH  049%=      5-min Rain = 0
KTA1 201653Z 18012KT 08/M02 A3026 RMK A01 T00791023  RH  049%=      5-min Rain = 0
KTA1 201654Z 17012KT 08/M02 A3026 RMK A01 T00801021  RH  049%=      5-min Rain = 0
KTA1 201655Z 18013KT 08/M02 A3026 RMK A01 T00811021  RH  048%=      5-min Rain = 0
KTA1 201656Z 18013KT 08/M02 A3026 RMK A01 T00811022  RH  048%=      5-min Rain = 0
KTA1 201657Z 18011KT 08/M02 A3026 RMK A01 T00821021  RH  048%=      5-min Rain = 0
KTA1 201658Z 17013KT 08/M02 A3025 RMK A01 T00831021  RH  048%=      5-min Rain = 0
KTA1 201659Z 17013KT 08/M02 A3026 RMK A01 T00831021  RH  048%=      5-min Rain = 0
KTA1 201700Z 17013KT 08/M02 A3025 RMK A01 T00841021  RH  048%=      5-min Rain = 0
KTA1 201701Z 18013KT 08/M02 A3025 RMK A01 T00841022  RH  047%=      5-min Rain = 0
KTA1 201702Z 17012KT 08/M02 A3025 RMK A01 T00841022  RH  047%=      5-min Rain = 0
KTA1 201703Z 18014KT 08/M02 A3025 RMK A01 T00841021  RH  047%=      5-min Rain = 0
KTA1 201704Z 18013KT 08/M02 A3025 RMK A01 T00841022  RH  047%=      5-min Rain = 0
KTA1 201705Z 19013KT 08/M02 A3025 RMK A01 T00841023  RH  047%=      5-min Rain = 0
KTA1 201706Z 18015KT 08/M02 A3025 RMK A01 T00831022  RH  047%=      5-min Rain = 0
KTA1 201707Z 18013KT 08/M02 A3025 RMK A01 T00841022  RH  047%=      5-min Rain = 0
KTA1 201708Z 17010G15KT 08/M02 A3025 RMK A01 T00841021  RH  047%=      5-min Rain = 0
KTA1 201709Z 16012KT 09/M02 A3025 RMK A01 T00861020  RH  047%=      5-min Rain = 0
KTA1 201710Z 17013KT 09/M02 A3025 RMK A01 T00871021  RH  047%=      5-min Rain = 0
KTA1 201711Z 17011KT 09/M02 A3025 RMK A01 T00881020  RH  047%=      5-min Rain = 0
KTA1 201712Z 17013KT 09/M02 A3025 RMK A01 T00891020  RH  046%=      5-min Rain = 0
KTA1 201713Z 18012KT 09/M02 A3025 RMK A01 T00901019  RH  046%=      5-min Rain = 0
KTA1 201714Z 17012KT 09/M02 A3025 RMK A01 T00911020  RH  046%=      5-min Rain = 0
KTA1 201715Z 17010KT 09/M02 A3025 RMK A01 T00911019  RH  046%=      5-min Rain = 0
KTA1 201716Z 17010KT 09/M02 A3024 RMK A01 T00931017  RH  046%=      5-min Rain = 0
KTA1 201717Z 18012KT 10/M02 A3024 RMK A01 T00951017  RH  045%=      5-min Rain = 0
KTA1 201718Z 17012KT 10/M02 A3024 RMK A01 T00961019  RH  044%=      5-min Rain = 0
KTA1 201719Z 18012KT 10/M02 A3024 RMK A01 T00951018  RH  045%=      5-min Rain = 0
KTA1 201720Z 18013KT 10/M02 A3024 RMK A01 T00961018  RH  045%=      5-min Rain = 0
KTA1 201721Z 18011KT 10/M02 A3024 RMK A01 T00961020  RH  044%=      5-min Rain = 0
KTA1 201722Z 17010KT 10/M02 A3024 RMK A01 T00961018  RH  045%=      5-min Rain = 0
KTA1 201723Z 18011KT 10/M02 A3024 RMK A01 T00981017  RH  045%=      5-min Rain = 0
KTA1 201724Z 18010KT 10/M02 A3024 RMK A01 T00981017  RH  044%=      5-min Rain = 0
KTA1 201725Z 17011KT 10/M02 A3024 RMK A01 T00991017  RH  044%=      5-min Rain = 0
KTA1 201726Z 18011KT 10/M02 A3024 RMK A01 T01001019  RH  043%=      5-min Rain = 0
KTA1 201727Z 18011KT 10/M02 A3024 RMK A01 T01011019  RH  043%=      5-min Rain = 0
KTA1 201728Z 18012KT 10/M02 A3024 RMK A01 T01021018  RH  043%=      5-min Rain = 0
KTA1 201729Z 17010KT 10/M02 A3024 RMK A01 T01031017  RH  043%=      5-min Rain = 0
KTA1 201730Z 18011KT 11/M02 A3024 RMK A01 T01051017  RH  042%=      5-min Rain = 0
KTA1 201731Z 18012KT 11/M02 A3024 RMK A01 T01051019  RH  042%=      5-min Rain = 0
KTA1 201732Z 17012KT 11/M02 A3024 RMK A01 T01051020  RH  042%=      5-min Rain = 0
KTA1 201733Z 17010KT 11/M02 A3024 RMK A01 T01061018  RH  042%=      5-min Rain = 0
KTA1 201734Z 18009KT 11/M02 A3024 RMK A01 T01081016  RH  042%=      5-min Rain = 0
KTA1 201735Z 18009KT 11/M02 A3024 RMK A01 T01101016  RH  042%=      5-min Rain = 0
KTA1 201736Z 17010KT 11/M02 A3024 RMK A01 T01111016  RH  041%=      5-min Rain = 0
KTA1 201737Z 18010KT 11/M02 A3024 RMK A01 T01121016  RH  041%=      5-min Rain = 0
KTA1 201738Z 19011KT 11/M02 A3024 RMK A01 T01141016  RH  040%=      5-min Rain = 0
KTA1 201739Z 17011KT 12/M02 A3024 RMK A01 T01151016  RH  040%=      5-min Rain = 0
KTA1 201740Z 18012KT 12/M02 A3024 RMK A01 T01161017  RH  040%=      5-min Rain = 0
KTA1 201741Z 17010KT 11/M02 A3024 RMK A01 T01141018  RH  040%=      5-min Rain = 0
KTA1 201742Z 18013KT 11/M02 A3024 RMK A01 T01141018  RH  040%=      5-min Rain = 0
KTA1 201743Z 18012KT 11/M02 A3024 RMK A01 T01141018  RH  040%=      5-min Rain = 0
KTA1 201744Z 18012KT 11/M02 A3024 RMK A01 T01131018  RH  040%=      5-min Rain = 0
KTA1 201745Z 17012KT 11/M02 A3024 RMK A01 T01121017  RH  040%=      5-min Rain = 0
KTA1 201746Z 17012KT 11/M02 A3024 RMK A01 T01131015  RH  041%=      5-min Rain = 0
KTA1 201747Z 17010KT 11/M02 A3024 RMK A01 T01141017  RH  040%=      5-min Rain = 0
KTA1 201748Z 18011KT 12/M01 A3024 RMK A01 T01151014  RH  041%=      5-min Rain = 0
KTA1 201749Z 19009KT 12/M02 A3024 RMK A01 T01171015  RH  040%=      5-min Rain = 0
KTA1 201750Z 20011KT 12/M02 A3024 RMK A01 T01191016  RH  039%=      5-min Rain = 0
KTA1 201751Z 19010KT 12/M02 A3024 RMK A01 T01191015  RH  039%=      5-min Rain = 0
KTA1 201752Z 18010KT 12/M02 A3024 RMK A01 T01201015  RH  039%=      5-min Rain = 0
KTA1 201753Z 19012KT 12/M02 A3024 RMK A01 T01201015  RH  039%=      5-min Rain = 0
KTA1 201754Z 19010KT 12/M02 A3024 RMK A01 T01191017  RH  039%=      5-min Rain = 0
KTA1 201755Z 18009KT 12/M02 A3024 RMK A01 T01191015  RH  039%=      5-min Rain = 0
KTA1 201756Z 19009KT 12/M02 A3024 RMK A01 T01201015  RH  039%=      5-min Rain = 0
KTA1 201757Z 18013KT 12/M02 A3024 RMK A01 T01211015  RH  039%=      5-min Rain = 0
KTA1 201758Z 19010KT 12/M02 A3024 RMK A01 T01221015  RH  039%=      5-min Rain = 0
KTA1 201759Z 19010KT 12/M01 A3024 RMK A01 T01241014  RH  039%=      5-min Rain = 0
KTA1 201800Z 19011KT 12/M02 A3024 RMK A01 T01241015  RH  038%=      5-min Rain = 0
KTA1 201801Z 18012KT 12/M02 A3023 RMK A01 T01241017  RH  038%=      5-min Rain = 0
KTA1 201802Z 17011KT 12/M02 A3023 RMK A01 T01231017  RH  038%=      5-min Rain = 0
KTA1 201803Z 20010KT 12/M02 A3023 RMK A01 T01241016  RH  038%=      5-min Rain = 0
KTA1 201804Z 20012KT 13/M02 A3023 RMK A01 T01251019  RH  037%=      5-min Rain = 0
KTA1 201805Z 19011KT 13/M02 A3023 RMK A01 T01251019  RH  037%=      5-min Rain = 0
KTA1 201806Z 19010KT 13/M02 A3023 RMK A01 T01261018  RH  037%=      5-min Rain = 0
KTA1 201807Z 20012KT 13/M02 A3023 RMK A01 T01261016  RH  037%=      5-min Rain = 0
KTA1 201808Z 19009KT 13/M02 A3023 RMK A01 T01271018  RH  037%=      5-min Rain = 0
KTA1 201809Z 19010KT 13/M02 A3023 RMK A01 T01281017  RH  037%=      5-min Rain = 0
KTA1 201810Z 20009KT 13/M02 A3023 RMK A01 T01281017  RH  036%=      5-min Rain = 0
KTA1 201811Z 21010KT 13/M02 A3023 RMK A01 T01291016  RH  037%=      5-min Rain = 0
KTA1 201812Z 20010KT 13/M02 A3023 RMK A01 T01291016  RH  036%=      5-min Rain = 0
KTA1 201813Z 19008KT 13/M02 A3023 RMK A01 T01301015  RH  037%=      5-min Rain = 0
KTA1 201814Z 20010KT 13/M02 A3023 RMK A01 T01311015  RH  036%=      5-min Rain = 0
KTA1 201815Z 19009KT 13/M02 A3023 RMK A01 T01311015  RH  036%=      5-min Rain = 0
KTA1 201816Z 18009G14KT 13/M01 A3023 RMK A01 T01331013  RH  036%=      5-min Rain = 0
KTA1 201817Z 19011KT 14/M02 A3023 RMK A01 T01361015  RH  035%=      5-min Rain = 0
KTA1 201818Z 19010KT 14/M02 A3023 RMK A01 T01351017  RH  035%=      5-min Rain = 0
KTA1 201819Z 19008KT 13/M02 A3022 RMK A01 T01341015  RH  036%=      5-min Rain = 0
KTA1 201820Z 20010KT 14/M01 A3022 RMK A01 T01351013  RH  036%=      5-min Rain = 0
KTA1 201821Z 20010KT 14/M02 A3022 RMK A01 T01361016  RH  035%=      5-min Rain = 0
KTA1 201822Z 19011KT 14/M02 A3022 RMK A01 T01351015  RH  035%=      5-min Rain = 0
KTA1 201823Z 21010KT 13/M02 A3022 RMK A01 T01341017  RH  035%=      5-min Rain = 0
KTA1 201824Z 20007KT 13/M02 A3022 RMK A01 T01341018  RH  035%=      5-min Rain = 0
KTA1 201825Z 19008KT 14/M02 A3022 RMK A01 T01351016  RH  035%=      5-min Rain = 0
KTA1 201826Z 20010KT 14/M02 A3022 RMK A01 T01361017  RH  035%=      5-min Rain = 0
KTA1 201827Z 20009KT 14/M02 A3022 RMK A01 T01371016  RH  035%=      5-min Rain = 0
KTA1 201828Z 19010KT 14/M02 A3022 RMK A01 T01391017  RH  034%=      5-min Rain = 0
KTA1 201829Z 20008KT 14/M02 A3022 RMK A01 T01381018  RH  034%=      5-min Rain = 0
KTA1 201830Z 21009KT 14/M02 A3022 RMK A01 T01381016  RH  035%=      5-min Rain = 0
KTA1 201831Z 20009KT 14/M01 A3022 RMK A01 T01391012  RH  035%=      5-min Rain = 0
KTA1 201832Z 20009KT 14/M01 A3022 RMK A01 T01431012  RH  034%=      5-min Rain = 0
KTA1 201833Z 20009KT 15/M01 A3022 RMK A01 T01451013  RH  034%=      5-min Rain = 0
KTA1 201834Z 19008KT 15/M01 A3022 RMK A01 T01451014  RH  034%=      5-min Rain = 0
KTA1 201835Z 20008KT 14/M01 A3022 RMK A01 T01431014  RH  034%=      5-min Rain = 0
KTA1 201836Z 19008KT 14/M01 A3021 RMK A01 T01431013  RH  034%=      5-min Rain = 0
KTA1 201837Z 20010KT 14/M02 A3021 RMK A01 T01441016  RH  033%=      5-min Rain = 0
KTA1 201838Z 19011KT 14/M02 A3021 RMK A01 T01441016  RH  033%=      5-min Rain = 0
KTA1 201839Z 20008KT 14/M02 A3021 RMK A01 T01431017  RH  033%=      5-min Rain = 0
KTA1 201840Z 19008KT 14/M02 A3021 RMK A01 T01431016  RH  033%=      5-min Rain = 0
KTA1 201841Z 18010KT 15/M01 A3021 RMK A01 T01451013  RH  034%=      5-min Rain = 0
KTA1 201842Z 19011KT 15/M02 A302 RMK A01 T01451015  RH  033%=      5-min Rain = 0
KTA1 201843Z 20008KT 15/M02 A302 RMK A01 T01461015  RH  033%=      5-min Rain = 0
KTA1 201844Z 19008KT 15/M02 A302 RMK A01 T01471015  RH  033%=      5-min Rain = 0
KTA1 201845Z 21011KT 15/M02 A302 RMK A01 T01481017  RH  032%=      5-min Rain = 0
KTA1 201846Z 20010KT 15/M02 A302 RMK A01 T01481018  RH  032%=      5-min Rain = 0
KTA1 201847Z 19009KT 15/M02 A302 RMK A01 T01471018  RH  032%=      5-min Rain = 0
KTA1 201848Z 20009KT 15/M02 A302 RMK A01 T01461016  RH  033%=      5-min Rain = 0
KTA1 201849Z 19010KT 15/M02 A302 RMK A01 T01471015  RH  033%=      5-min Rain = 0
KTA1 201850Z 19009KT 15/M02 A302 RMK A01 T01471016  RH  032%=      5-min Rain = 0
KTA1 201851Z 20009KT 15/M02 A302 RMK A01 T01471016  RH  032%=      5-min Rain = 0
KTA1 201852Z 19007KT 15/M02 A302 RMK A01 T01461018  RH  032%=      5-min Rain = 0
KTA1 201853Z 18010KT 15/M02 A3019 RMK A01 T01461017  RH  033%=      5-min Rain = 0
KTA1 201854Z 20011KT 15/M02 A3019 RMK A01 T01481019  RH  032%=      5-min Rain = 0
KTA1 201855Z 18009KT 15/M02 A3019 RMK A01 T01511015  RH  032%=      5-min Rain = 0
KTA1 201856Z 19008G13KT 15/M02 A3019 RMK A01 T01521018  RH  031%=      5-min Rain = 0
KTA1 201857Z 18011KT 15/M02 A3019 RMK A01 T01521018  RH  031%=      5-min Rain = 0
KTA1 201858Z 18008KT 15/M02 A3019 RMK A01 T01511020  RH  031%=      5-min Rain = 0
KTA1 201859Z 19008KT 15/M02 A3019 RMK A01 T01501021  RH  031%=      5-min Rain = 0
KTA1 201900Z 18011KT 15/M02 A3019 RMK A01 T01491021  RH  031%=      5-min Rain = 0
KTA1 201901Z 20011KT 15/M02 A3019 RMK A01 T01511020  RH  031%=      5-min Rain = 0
KTA1 201902Z 18009KT 15/M02 A3019 RMK A01 T01521017  RH  031%=      5-min Rain = 0
KTA1 201903Z 20008KT 15/M02 A3019 RMK A01 T01531018  RH  031%=      5-min Rain = 0
KTA1 201904Z 19010KT 15/M02 A3018 RMK A01 T01541017  RH  031%=      5-min Rain = 0
KTA1 201905Z 19010KT 15/M02 A3019 RMK A01 T01541022  RH  030%=      5-min Rain = 0
KTA1 201906Z 19009KT 15/M02 A3018 RMK A01 T01531021  RH  030%=      5-min Rain = 0
KTA1 201907Z 19008G14KT 15/M03 A3018 RMK A01 T01531026  RH  029%=      5-min Rain = 0
KTA1 201908Z 21011KT 16/M03 A3018 RMK A01 T01561025  RH  029%=      5-min Rain = 0
KTA1 201909Z 21010KT 16/M03 A3018 RMK A01 T01581025  RH  028%=      5-min Rain = 0
KTA1 201910Z 19011KT 16/M02 A3018 RMK A01 T01611016  RH  030%=      5-min Rain = 0
KTA1 201911Z 18011KT 16/M02 A3018 RMK A01 T01601021  RH  029%=      5-min Rain = 0
KTA1 201912Z 18007KT 16/M02 A3018 RMK A01 T01561022  RH  029%=      5-min Rain = 0
KTA1 201913Z 20007G12KT 16/M02 A3018 RMK A01 T01561018  RH  030%=      5-min Rain = 0
KTA1 201914Z 20010KT 16/M02 A3018 RMK A01 T01581023  RH  029%=      5-min Rain = 0
KTA1 201915Z 19011KT 16/M03 A3018 RMK A01 T01591025  RH  028%=      5-min Rain = 0
KTA1 201916Z 20011KT 16/M03 A3018 RMK A01 T01591025  RH  028%=      5-min Rain = 0
KTA1 201917Z 20010KT 16/M03 A3018 RMK A01 T01581028  RH  028%=      5-min Rain = 0
KTA1 201918Z 21010KT 16/M03 A3018 RMK A01 T01581029  RH  027%=      5-min Rain = 0
KTA1 201919Z 21012KT 16/M03 A3018 RMK A01 T01591028  RH  028%=      5-min Rain = 0
KTA1 201920Z 20011KT 16/M03 A3018 RMK A01 T01591031  RH  027%=      5-min Rain = 0
KTA1 201921Z 20012KT 16/M03 A3018 RMK A01 T01581032  RH  027%=      5-min Rain = 0
KTA1 201922Z 19011KT 16/M03 A3018 RMK A01 T01571031  RH  027%=      5-min Rain = 0
KTA1 201923Z 19011KT 16/M03 A3018 RMK A01 T01581032  RH  027%=      5-min Rain = 0
KTA1 201924Z 19010KT 16/M03 A3017 RMK A01 T01581032  RH  027%=      5-min Rain = 0
KTA1 201925Z 20010KT 16/M03 A3017 RMK A01 T01571031  RH  027%=      5-min Rain = 0
KTA1 201926Z 21009KT 16/M03 A3017 RMK A01 T01581027  RH  028%=      5-min Rain = 0
KTA1 201927Z 20007KT 16/M03 A3017 RMK A01 T01581027  RH  028%=      5-min Rain = 0
KTA1 201928Z 18010KT 16/M03 A3017 RMK A01 T01581025  RH  028%=      5-min Rain = 0
KTA1 201929Z 19010KT 16/M02 A3017 RMK A01 T01601024  RH  028%=      5-min Rain = 0
KTA1 201930Z 21011KT 16/M03 A3017 RMK A01 T01621026  RH  027%=      5-min Rain = 0
KTA1 201931Z 21012KT 16/M03 A3017 RMK A01 T01611031  RH  027%=      5-min Rain = 0
KTA1 201932Z 20010KT 16/M03 A3017 RMK A01 T01601032  RH  026%=      5-min Rain = 0
KTA1 201933Z 21011KT 16/M03 A3017 RMK A01 T01611032  RH  026%=      5-min Rain = 0
KTA1 201934Z 21012KT 16/M03 A3017 RMK A01 T01621034  RH  026%=      5-min Rain = 0
KTA1 201935Z 21011KT 16/M03 A3017 RMK A01 T01621034  RH  026%=      5-min Rain = 0
KTA1 201936Z 21009KT 16/M03 A3017 RMK A01 T01631034  RH  026%=      5-min Rain = 0
KTA1 201937Z 20009KT 16/M03 A3016 RMK A01 T01631033  RH  026%=      5-min Rain = 0
KTA1 201938Z 21010G16KT 16/M03 A3016 RMK A01 T01631032  RH  026%=      5-min Rain = 0
KTA1 201939Z 20012KT 16/M03 A3016 RMK A01 T01641030  RH  026%=      5-min Rain = 0
KTA1 201940Z 21010KT 17/M03 A3016 RMK A01 T01651029  RH  026%=      5-min Rain = 0
KTA1 201941Z 21011KT 17/M03 A3016 RMK A01 T01661028  RH  026%=      5-min Rain = 0
KTA1 201942Z 22009KT 17/M03 A3016 RMK A01 T01651029  RH  026%=      5-min Rain = 0
KTA1 201943Z 20011KT 16/M03 A3016 RMK A01 T01641027  RH  027%=      5-min Rain = 0
KTA1 201944Z 21011KT 17/M03 A3016 RMK A01 T01651026  RH  027%=      5-min Rain = 0
KTA1 201945Z 20011KT 17/M03 A3016 RMK A01 T01651029  RH  026%=      5-min Rain = 0
KTA1 201946Z 20011KT 17/M03 A3016 RMK A01 T01651028  RH  026%=      5-min Rain = 0
KTA1 201947Z 20013KT 17/M03 A3016 RMK A01 T01671031  RH  026%=      5-min Rain = 0
KTA1 201948Z 20010KT 17/M03 A3016 RMK A01 T01651032  RH  026%=      5-min Rain = 0
KTA1 201949Z 19012KT 16/M03 A3016 RMK A01 T01641033  RH  026%=      5-min Rain = 0
KTA1 201950Z 20011KT 16/M03 A3015 RMK A01 T01641033  RH  026%=      5-min Rain = 0
KTA1 201951Z 20012KT 17/M03 A3015 RMK A01 T01651033  RH  026%=      5-min Rain = 0
KTA1 201952Z 21013KT 17/M03 A3015 RMK A01 T01651033  RH  026%=      5-min Rain = 0
KTA1 201953Z 20012KT 16/M03 A3015 RMK A01 T01631033  RH  026%=      5-min Rain = 0
KTA1 201954Z 19011KT 16/M03 A3015 RMK A01 T01621034  RH  026%=      5-min Rain = 0
KTA1 201955Z 20011KT 16/M03 A3015 RMK A01 T01621034  RH  026%=      5-min Rain = 0
KTA1 201956Z 20009G15KT 16/M03 A3015 RMK A01 T01631029  RH  027%=      5-min Rain = 0
KTA1 201957Z 21013KT 17/M03 A3015 RMK A01 T01661030  RH  026%=      5-min Rain = 0
KTA1 201958Z 20008KT 17/M03 A3015 RMK A01 T01661029  RH  026%=      5-min Rain = 0
KTA1 201959Z 21010KT 17/M03 A3015 RMK A01 T01681025  RH  027%=      5-min Rain = 0
KTA1 202000Z 21009KT 17/M03 A3015 RMK A01 T01691026  RH  026%=      5-min Rain = 0
KTA1 202001Z 20013KT 17/M03 A3015 RMK A01 T01681030  RH  026%=      5-min Rain = 0
KTA1 202002Z 22012KT 17/M03 A3015 RMK A01 T01671033  RH  025%=      5-min Rain = 0
KTA1 202003Z 21011KT 17/M04 A3015 RMK A01 T01661040  RH  024%=      5-min Rain = 0
KTA1 202004Z 21011KT 16/M04 A3014 RMK A01 T01641044  RH  024%=      5-min Rain = 0
KTA1 202005Z 21011KT 16/M04 A3014 RMK A01 T01631038  RH  025%=      5-min Rain = 0
KTA1 202006Z 19015KT 16/M04 A3014 RMK A01 T01631035  RH  025%=      5-min Rain = 0
KTA1 202007Z 20011KT 16/M03 A3014 RMK A01 T01641034  RH  026%=      5-min Rain = 0
KTA1 202008Z 20013KT 17/M04 A3014 RMK A01 T01651036  RH  025%=      5-min Rain = 0
KTA1 202009Z 19010KT 16/M04 A3014 RMK A01 T01641038  RH  025%=      5-min Rain = 0
KTA1 202010Z 18010KT 17/M03 A3014 RMK A01 T01651033  RH  025%=      5-min Rain = 0
KTA1 202011Z 20014KT 17/M03 A3014 RMK A01 T01671031  RH  026%=      5-min Rain = 0
KTA1 202012Z 21013KT 17/M03 A3014 RMK A01 T01681034  RH  025%=      5-min Rain = 0
KTA1 202013Z 21011KT 17/M03 A3014 RMK A01 T01671032  RH  025%=      5-min Rain = 0
KTA1 202014Z 20013KT 17/M03 A3014 RMK A01 T01681031  RH  025%=      5-min Rain = 0
KTA1 202015Z 20012KT 17/M03 A3014 RMK A01 T01691031  RH  025%=      5-min Rain = 0
KTA1 202016Z 21012KT 17/M03 A3014 RMK A01 T01701033  RH  025%=      5-min Rain = 0
KTA1 202017Z 20012KT 17/M04 A3014 RMK A01 T01681035  RH  025%=      5-min Rain = 0
KTA1 202018Z 20010KT 17/M04 A3014 RMK A01 T01681036  RH  024%=      5-min Rain = 0
KTA1 202019Z 20014KT 17/M04 A3014 RMK A01 T01691036  RH  024%=      5-min Rain = 0
KTA1 202020Z 20014KT 17/M04 A3014 RMK A01 T01691042  RH  023%=      5-min Rain = 0
KTA1 202021Z 19013KT 17/M05 A3013 RMK A01 T01691048  RH  022%=      5-min Rain = 0
KTA1 202022Z 20011KT 17/M05 A3013 RMK A01 T01691051  RH  022%=      5-min Rain = 0
KTA1 202023Z 21012KT 17/M05 A3013 RMK A01 T01701048  RH  022%=      5-min Rain = 0
KTA1 202024Z 21014KT 17/M05 A3013 RMK A01 T01711045  RH  022%=      5-min Rain = 0
KTA1 202025Z 21013KT 17/M05 A3013 RMK A01 T01721046  RH  022%=      5-min Rain = 0
KTA1 202026Z 21012KT 17/M05 A3013 RMK A01 T01721045  RH  022%=      5-min Rain = 0
KTA1 202027Z 22012KT 17/M05 A3013 RMK A01 T01711046  RH  022%=      5-min Rain = 0
KTA1 202028Z 20013KT 17/M05 A3013 RMK A01 T01711047  RH  022%=      5-min Rain = 0
KTA1 202029Z 19012KT 17/M05 A3013 RMK A01 T01711050  RH  022%=      5-min Rain = 0
KTA1 202030Z 19012KT 17/M05 A3013 RMK A01 T01721050  RH  022%=      5-min Rain = 0
KTA1 202031Z 20010KT 17/M05 A3013 RMK A01 T01721050  RH  022%=      5-min Rain = 0
KTA1 202032Z 21011KT 17/M05 A3013 RMK A01 T01731048  RH  022%=      5-min Rain = 0
KTA1 202033Z 21009KT 17/M05 A3013 RMK A01 T01731045  RH  022%=      5-min Rain = 0
KTA1 202034Z 22014KT 17/M05 A3013 RMK A01 T01731047  RH  022%=      5-min Rain = 0
KTA1 202035Z 21012KT 17/M05 A3013 RMK A01 T01721046  RH  022%=      5-min Rain = 0
KTA1 202036Z 22010KT 17/M04 A3013 RMK A01 T01741044  RH  022%=      5-min Rain = 0
KTA1 202037Z 22013KT 17/M05 A3013 RMK A01 T01741046  RH  022%=      5-min Rain = 0
KTA1 202038Z 22011KT 17/M05 A3013 RMK A01 T01721048  RH  022%=      5-min Rain = 0
KTA1 202039Z 21010KT 17/M04 A3013 RMK A01 T01721044  RH  022%=      5-min Rain = 0
KTA1 202040Z 21014KT 17/M05 A3013 RMK A01 T01731045  RH  022%=      5-min Rain = 0
KTA1 202041Z 20014KT 17/M05 A3013 RMK A01 T01741049  RH  021%=      5-min Rain = 0
KTA1 202042Z 21011KT 17/M05 A3013 RMK A01 T01741045  RH  022%=      5-min Rain = 0
KTA1 202043Z 20012KT 18/M05 A3013 RMK A01 T01761046  RH  022%=      5-min Rain = 0
KTA1 202044Z 21013KT 18/M05 A3013 RMK A01 T01761047  RH  021%=      5-min Rain = 0
KTA1 202045Z 21011KT 18/M05 A3013 RMK A01 T01751048  RH  021%=      5-min Rain = 0
KTA1 202046Z 21012KT 18/M05 A3013 RMK A01 T01751047  RH  022%=      5-min Rain = 0
KTA1 202047Z 22010KT 18/M05 A3013 RMK A01 T01751046  RH  022%=      5-min Rain = 0
KTA1 202048Z 21008KT 18/M05 A3013 RMK A01 T01751045  RH  022%=      5-min Rain = 0
KTA1 202049Z 21013KT 18/M04 A3012 RMK A01 T01771044  RH  022%=      5-min Rain = 0
KTA1 202050Z 21013KT 18/M05 A3012 RMK A01 T01771047  RH  021%=      5-min Rain = 0
KTA1 202051Z 21011KT 18/M05 A3012 RMK A01 T01771046  RH  021%=      5-min Rain = 0
KTA1 202052Z 21014KT 18/M05 A3012 RMK A01 T01761049  RH  021%=      5-min Rain = 0
KTA1 202053Z 22011KT 17/M05 A3012 RMK A01 T01741049  RH  021%=      5-min Rain = 0
KTA1 202054Z 22010KT 17/M05 A3012 RMK A01 T01731049  RH  022%=      5-min Rain = 0
KTA1 202055Z 20010KT 17/M05 A3012 RMK A01 T01731047  RH  022%=      5-min Rain = 0
KTA1 202056Z 20013KT 18/M05 A3012 RMK A01 T01751047  RH  022%=      5-min Rain = 0
KTA1 202057Z 20012KT 18/M05 A3012 RMK A01 T01751049  RH  021%=      5-min Rain = 0
KTA1 202058Z 21011KT 18/M05 A3012 RMK A01 T01751047  RH  022%=      5-min Rain = 0
KTA1 202059Z 21008KT 18/M05 A3012 RMK A01 T01771046  RH  022%=      5-min Rain = 0
KTA1 202100Z 19010KT 18/M05 A3012 RMK A01 T01781046  RH  021%=      5-min Rain = 0
KTA1 202101Z 19009KT 18/M05 A3012 RMK A01 T01781046  RH  021%=      5-min Rain = 0
KTA1 202102Z 20012G18KT 18/M05 A3012 RMK A01 T01771046  RH  021%=      5-min Rain = 0
KTA1 202103Z 20013KT 18/M05 A3012 RMK A01 T01751045  RH  022%=      5-min Rain = 0
KTA1 202104Z 20011KT 18/M05 A3012 RMK A01 T01751046  RH  022%=      5-min Rain = 0
KTA1 202105Z 20009KT 18/M05 A3012 RMK A01 T01751046  RH  022%=      5-min Rain = 0
KTA1 202106Z 20012KT 18/M05 A3011 RMK A01 T01751045  RH  022%=      5-min Rain = 0
KTA1 202107Z 21014KT 18/M04 A3011 RMK A01 T01761044  RH  022%=      5-min Rain = 0
KTA1 202108Z 20014KT 18/M05 A3011 RMK A01 T01771046  RH  022%=      5-min Rain = 0
KTA1 202109Z 19012KT 18/M05 A3011 RMK A01 T01761049  RH  021%=      5-min Rain = 0
KTA1 202110Z 21011KT 17/M05 A3011 RMK A01 T01741048  RH  022%=      5-min Rain = 0
KTA1 202111Z 20011KT 18/M04 A3011 RMK A01 T01751044  RH  022%=      5-min Rain = 0
KTA1 202112Z 22012KT 18/M04 A3011 RMK A01 T01761043  RH  022%=      5-min Rain = 0
KTA1 202113Z 22010KT 18/M05 A3011 RMK A01 T01761046  RH  022%=      5-min Rain = 0
KTA1 202114Z 21009KT 18/M05 A3011 RMK A01 T01751045  RH  022%=      5-min Rain = 0
KTA1 202115Z 18011KT 18/M04 A3011 RMK A01 T01751042  RH  022%=      5-min Rain = 0
KTA1 202116Z 18011KT 18/M04 A3011 RMK A01 T01761044  RH  022%=      5-min Rain = 0
KTA1 202117Z 17009G14KT 18/M05 A3011 RMK A01 T01751046  RH  022%=      5-min Rain = 0
KTA1 202118Z 19012KT 18/M04 A3011 RMK A01 T01751042  RH  022%=      5-min Rain = 0
KTA1 202119Z 20013G20KT 18/M04 A3011 RMK A01 T01751044  RH  022%=      5-min Rain = 0
KTA1 202120Z 21013KT 17/M04 A3011 RMK A01 T01741043  RH  022%=      5-min Rain = 0
KTA1 202121Z 21013KT 17/M05 A3011 RMK A01 T01741045  RH  022%=      5-min Rain = 0
KTA1 202122Z 20011KT 17/M04 A3011 RMK A01 T01731043  RH  022%=      5-min Rain = 0
KTA1 202123Z 20009KT 17/M04 A3011 RMK A01 T01731041  RH  023%=      5-min Rain = 0
KTA1 202124Z 21009KT 17/M04 A3011 RMK A01 T01741041  RH  023%=      5-min Rain = 0
KTA1 202125Z 19011KT 18/M04 A3011 RMK A01 T01751041  RH  023%=      5-min Rain = 0
KTA1 202126Z 19012KT 18/M04 A3011 RMK A01 T01751043  RH  022%=      5-min Rain = 0
KTA1 202127Z 19009KT 17/M04 A3011 RMK A01 T01741043  RH  022%=      5-min Rain = 0
KTA1 202128Z 20012KT 17/M04 A3011 RMK A01 T01731042  RH  023%=      5-min Rain = 0
KTA1 202129Z 20013KT 17/M04 A3011 RMK A01 T01731043  RH  023%=      5-min Rain = 0
KTA1 202130Z 20013KT 17/M04 A301 RMK A01 T01721043  RH  023%=      5-min Rain = 0
KTA1 202131Z 20012KT 17/M04 A301 RMK A01 T01711044  RH  023%=      5-min Rain = 0
KTA1 202132Z 19011KT 17/M04 A301 RMK A01 T01711043  RH  023%=      5-min Rain = 0
KTA1 202133Z 19014KT 17/M04 A301 RMK A01 T01711043  RH  023%=      5-min Rain = 0
KTA1 202134Z 19013KT 17/M05 A301 RMK A01 T01711046  RH  022%=      5-min Rain = 0
KTA1 202135Z 19013KT 17/M05 A301 RMK A01 T01711046  RH  022%=      5-min Rain = 0
KTA1 202136Z 19013KT 17/M05 A301 RMK A01 T01711046  RH  022%=      5-min Rain = 0
KTA1 202137Z 18010G16KT 17/M04 A301 RMK A01 T01721044  RH  022%=      5-min Rain = 0
KTA1 202138Z 19014KT 17/M04 A301 RMK A01 T01741042  RH  023%=      5-min Rain = 0
KTA1 202139Z 20011KT 18/M04 A301 RMK A01 T01761044  RH  022%=      5-min Rain = 0
KTA1 202140Z 20012KT 18/M05 A301 RMK A01 T01761047  RH  021%=      5-min Rain = 0
KTA1 202141Z 20012KT 18/M04 A301 RMK A01 T01761044  RH  022%=      5-min Rain = 0
KTA1 202142Z 20012KT 18/M04 A301 RMK A01 T01761044  RH  022%=      5-min Rain = 0
KTA1 202143Z 20014KT 18/M04 A301 RMK A01 T01761044  RH  022%=      5-min Rain = 0
KTA1 202144Z 20013KT 18/M04 A301 RMK A01 T01761044  RH  022%=      5-min Rain = 0
KTA1 202145Z 19011KT 18/M04 A301 RMK A01 T01751043  RH  022%=      5-min Rain = 0
KTA1 202146Z 18012KT 18/M05 A301 RMK A01 T01751045  RH  022%=      5-min Rain = 0
KTA1 202147Z 20010G15KT 17/M04 A301 RMK A01 T01741043  RH  022%=      5-min Rain = 0
KTA1 202148Z 20013KT 18/M04 A301 RMK A01 T01751043  RH  022%=      5-min Rain = 0
KTA1 202149Z 20012KT 18/M05 A301 RMK A01 T01751045  RH  022%=      5-min Rain = 0
KTA1 202150Z 19012KT 17/M04 A301 RMK A01 T01741044  RH  022%=      5-min Rain = 0
KTA1 202151Z 19012KT 18/M04 A301 RMK A01 T01751043  RH  022%=      5-min Rain = 0
KTA1 202152Z 18013KT 18/M04 A301 RMK A01 T01761043  RH  022%=      5-min Rain = 0
KTA1 202153Z 18015KT 18/M04 A301 RMK A01 T01761043  RH  022%=      5-min Rain = 0
KTA1 202154Z 18013KT 18/M04 A301 RMK A01 T01761044  RH  022%=      5-min Rain = 0
KTA1 202155Z 19012KT 18/M04 A301 RMK A01 T01751044  RH  022%=      5-min Rain = 0
KTA1 202156Z 19013KT 18/M04 A301 RMK A01 T01751044  RH  022%=      5-min Rain = 0
KTA1 202157Z 19014KT 17/M04 A301 RMK A01 T01731044  RH  022%=      5-min Rain = 0
KTA1 202158Z 19013G18KT 17/M04 A301 RMK A01 T01731044  RH  022%=      5-min Rain = 0
KTA1 202159Z 20016KT 17/M05 A301 RMK A01 T01731045  RH  022%=      5-min Rain = 0
KTA1 202200Z 19012KT 17/M05 A301 RMK A01 T01721045  RH  022%=      5-min Rain = 0
KTA1 202201Z 20014KT 17/M05 A301 RMK A01 T01711045  RH  022%=      5-min Rain = 0
KTA1 202202Z 20012KT 17/M05 A301 RMK A01 T01721045  RH  022%=      5-min Rain = 0
KTA1 202203Z 20013KT 17/M04 A301 RMK A01 T01721044  RH  022%=      5-min Rain = 0
KTA1 202204Z 20013KT 17/M05 A301 RMK A01 T01731045  RH  022%=      5-min Rain = 0
KTA1 202205Z 20011KT 17/M05 A301 RMK A01 T01731045  RH  022%=      5-min Rain = 0
KTA1 202206Z 19010KT 17/M04 A301 RMK A01 T01741044  RH  022%=      5-min Rain = 0
KTA1 202207Z 19014KT 18/M04 A301 RMK A01 T01751043  RH  022%=      5-min Rain = 0
KTA1 202208Z 19013KT 18/M05 A301 RMK A01 T01751046  RH  022%=      5-min Rain = 0
KTA1 202209Z 19011KT 17/M05 A301 RMK A01 T01741046  RH  022%=      5-min Rain = 0
KTA1 202210Z 19014KT 17/M05 A301 RMK A01 T01741047  RH  022%=      5-min Rain = 0
KTA1 202211Z 19012KT 17/M05 A301 RMK A01 T01741046  RH  022%=      5-min Rain = 0
KTA1 202212Z 20010KT 17/M04 A301 RMK A01 T01741044  RH  022%=      5-min Rain = 0
KTA1 202213Z 20013KT 18/M04 A301 RMK A01 T01771041  RH  022%=      5-min Rain = 0
KTA1 202214Z 20014KT 18/M04 A301 RMK A01 T01781044  RH  022%=      5-min Rain = 0
KTA1 202215Z 19013KT 18/M05 A301 RMK A01 T01761047  RH  021%=      5-min Rain = 0
KTA1 202216Z 20011G16KT 18/M05 A301 RMK A01 T01751046  RH  022%=      5-min Rain = 0
KTA1 202217Z 20014KT 18/M04 A301 RMK A01 T01751044  RH  022%=      5-min Rain = 0
KTA1 202218Z 19014KT 18/M05 A301 RMK A01 T01751047  RH  022%=      5-min Rain = 0
KTA1 202219Z 20012KT 17/M05 A301 RMK A01 T01741047  RH  022%=      5-min Rain = 0
KTA1 202220Z 19013KT 17/M05 A301 RMK A01 T01741046  RH  022%=      5-min Rain = 0
KTA1 202221Z 20013KT 18/M05 A301 RMK A01 T01751046  RH  022%=      5-min Rain = 0
KTA1 202222Z 20013KT 18/M05 A301 RMK A01 T01761047  RH  022%=      5-min Rain = 0
KTA1 202223Z 20012KT 18/M05 A301 RMK A01 T01751048  RH  021%=      5-min Rain = 0
KTA1 202224Z 20014KT 18/M05 A301 RMK A01 T01751048  RH  022%=      5-min Rain = 0
KTA1 202225Z 18013KT 17/M05 A301 RMK A01 T01741047  RH  022%=      5-min Rain = 0
KTA1 202226Z 19011KT 17/M05 A301 RMK A01 T01731046  RH  022%=      5-min Rain = 0
KTA1 202227Z 20012KT 17/M04 A301 RMK A01 T01741044  RH  022%=      5-min Rain = 0
KTA1 202228Z 20014KT 17/M05 A301 RMK A01 T01741047  RH  022%=      5-min Rain = 0
KTA1 202229Z 20014KT 17/M05 A301 RMK A01 T01731049  RH  022%=      5-min Rain = 0
KTA1 202230Z 19013KT 17/M05 A301 RMK A01 T01711050  RH  022%=      5-min Rain = 0
KTA1 202231Z 19011KT 17/M05 A301 RMK A01 T01701050  RH  022%=      5-min Rain = 0
KTA1 202232Z 20011KT 17/M05 A301 RMK A01 T01691050  RH  022%=      5-min Rain = 0
KTA1 202233Z 19011KT 17/M05 A301 RMK A01 T01691049  RH  022%=      5-min Rain = 0
KTA1 202234Z 19011KT 17/M05 A301 RMK A01 T01691048  RH  022%=      5-min Rain = 0
KTA1 202235Z 19012KT 17/M05 A301 RMK A01 T01681049  RH  022%=      5-min Rain = 0
KTA1 202236Z 19013KT 17/M05 A301 RMK A01 T01681049  RH  022%=      5-min Rain = 0
KTA1 202237Z 20013KT 17/M05 A301 RMK A01 T01681049  RH  022%=      5-min Rain = 0
KTA1 202238Z 19012KT 17/M05 A301 RMK A01 T01691048  RH  022%=      5-min Rain = 0
KTA1 202239Z 20012KT 17/M05 A301 RMK A01 T01691048  RH  022%=      5-min Rain = 0
KTA1 202240Z 20011KT 17/M05 A301 RMK A01 T01691048  RH  022%=      5-min Rain = 0
KTA1 202241Z 19011KT 17/M05 A301 RMK A01 T01691047  RH  022%=      5-min Rain = 0
KTA1 202242Z 19012KT 17/M05 A301 RMK A01 T01711047  RH  022%=      5-min Rain = 0
KTA1 202243Z 20011KT 17/M05 A301 RMK A01 T01721047  RH  022%=      5-min Rain = 0
KTA1 202244Z 19011KT 17/M05 A301 RMK A01 T01731045  RH  022%=      5-min Rain = 0
KTA1 202245Z 19012KT 17/M05 A301 RMK A01 T01741047  RH  022%=      5-min Rain = 0
KTA1 202246Z 20011KT 17/M05 A301 RMK A01 T01741048  RH  022%=      5-min Rain = 0
KTA1 202247Z 19012KT 17/M05 A301 RMK A01 T01741046  RH  022%=      5-min Rain = 0
KTA1 202248Z 20011KT 17/M05 A301 RMK A01 T01741045  RH  022%=      5-min Rain = 0
KTA1 202249Z 20010KT 18/M04 A301 RMK A01 T01751043  RH  022%=      5-min Rain = 0
KTA1 202250Z 19012KT 18/M04 A301 RMK A01 T01761044  RH  022%=      5-min Rain = 0
KTA1 202251Z 19013KT 18/M05 A301 RMK A01 T01761046  RH  022%=      5-min Rain = 0
KTA1 202252Z 20011KT 18/M05 A301 RMK A01 T01751046  RH  022%=      5-min Rain = 0
KTA1 202253Z 20011KT 18/M05 A301 RMK A01 T01751045  RH  022%=      5-min Rain = 0
KTA1 202254Z 19012KT 18/M04 A301 RMK A01 T01751044  RH  022%=      5-min Rain = 0
KTA1 202255Z 19010KT 18/M05 A301 RMK A01 T01751045  RH  022%=      5-min Rain = 0
KTA1 202256Z 19012KT 18/M05 A301 RMK A01 T01751046  RH  022%=      5-min Rain = 0
KTA1 202257Z 19011KT 18/M05 A301 RMK A01 T01751045  RH  022%=      5-min Rain = 0
KTA1 202258Z 20014KT 18/M05 A301 RMK A01 T01751045  RH  022%=      5-min Rain = 0
KTA1 202259Z 21013KT 17/M05 A301 RMK A01 T01731047  RH  022%=      5-min Rain = 0
KTA1 202300Z 20012KT 17/M05 A301 RMK A01 T01711048  RH  022%=      5-min Rain = 0
KTA1 202301Z 20012KT 17/M05 A301 RMK A01 T01701048  RH  022%=      5-min Rain = 0
KTA1 202302Z 20011KT 17/M05 A301 RMK A01 T01701047  RH  022%=      5-min Rain = 0
KTA1 202303Z 20012KT 17/M05 A301 RMK A01 T01701047  RH  022%=      5-min Rain = 0
KTA1 202304Z 19012KT 17/M05 A301 RMK A01 T01701045  RH  023%=      5-min Rain = 0
KTA1 202305Z 19009KT 17/M04 A301 RMK A01 T01691044  RH  023%=      5-min Rain = 0
KTA1 202306Z 19010KT 17/M04 A301 RMK A01 T01691042  RH  023%=      5-min Rain = 0
KTA1 202307Z 19010KT 17/M04 A301 RMK A01 T01681043  RH  023%=      5-min Rain = 0
KTA1 202308Z 19011KT 17/M04 A301 RMK A01 T01671044  RH  023%=      5-min Rain = 0
KTA1 202309Z 19010KT 17/M04 A301 RMK A01 T01671044  RH  023%=      5-min Rain = 0
KTA1 202310Z 19011KT 17/M04 A301 RMK A01 T01661043  RH  024%=      5-min Rain = 0
KTA1 202311Z 19011G16KT 17/M04 A301 RMK A01 T01651043  RH  024%=      5-min Rain = 0
KTA1 202312Z 19012KT 16/M04 A301 RMK A01 T01641043  RH  024%=      5-min Rain = 0
KTA1 202313Z 19011KT 16/M04 A301 RMK A01 T01641043  RH  024%=      5-min Rain = 0
KTA1 202314Z 19012KT 16/M04 A301 RMK A01 T01641044  RH  024%=      5-min Rain = 0
KTA1 202315Z 19011KT 16/M04 A301 RMK A01 T01641044  RH  024%=      5-min Rain = 0
KTA1 202316Z 19008KT 16/M04 A301 RMK A01 T01641043  RH  024%=      5-min Rain = 0
KTA1 202317Z 19010KT 16/M04 A301 RMK A01 T01641042  RH  024%=      5-min Rain = 0
KTA1 202318Z 18010KT 16/M04 A301 RMK A01 T01641042  RH  024%=      5-min Rain = 0
KTA1 202319Z 18009KT 16/M04 A301 RMK A01 T01641041  RH  024%=      5-min Rain = 0
KTA1 202320Z 19011KT 16/M04 A301 RMK A01 T01641040  RH  025%=      5-min Rain = 0
KTA1 202321Z 19010KT 16/M04 A301 RMK A01 T01631040  RH  025%=      5-min Rain = 0
KTA1 202322Z 18011KT 16/M04 A301 RMK A01 T01631040  RH  024%=      5-min Rain = 0
KTA1 202323Z 18010KT 16/M04 A301 RMK A01 T01631041  RH  024%=      5-min Rain = 0
KTA1 202324Z 18010KT 16/M04 A301 RMK A01 T01621041  RH  024%=      5-min Rain = 0
KTA1 202325Z 18011KT 16/M04 A301 RMK A01 T01621042  RH  024%=      5-min Rain = 0
KTA1 202326Z 18010KT 16/M04 A3009 RMK A01 T01621042  RH  024%=      5-min Rain = 0
KTA1 202327Z 18009KT 16/M04 A3009 RMK A01 T01611042  RH  025%=      5-min Rain = 0
KTA1 202328Z 18010KT 16/M04 A3009 RMK A01 T01601041  RH  025%=      5-min Rain = 0
KTA1 202329Z 18009KT 16/M04 A3009 RMK A01 T01591041  RH  025%=      5-min Rain = 0
KTA1 202330Z 18008KT 16/M04 A3009 RMK A01 T01581041  RH  025%=      5-min Rain = 0
KTA1 202331Z 18009KT 16/M04 A3009 RMK A01 T01571040  RH  025%=      5-min Rain = 0
KTA1 202332Z 18008KT 16/M04 A3009 RMK A01 T01561041  RH  026%=      5-min Rain = 0
KTA1 202333Z 18008KT 16/M04 A3009 RMK A01 T01551041  RH  026%=      5-min Rain = 0
KTA1 202334Z 18008KT 15/M04 A3009 RMK A01 T01541041  RH  026%=      5-min Rain = 0
KTA1 202335Z 18009KT 15/M04 A3009 RMK A01 T01541041  RH  026%=      5-min Rain = 0
KTA1 202336Z 18008KT 15/M04 A3009 RMK A01 T01531041  RH  026%=      5-min Rain = 0
KTA1 202337Z 18008KT 15/M04 A3009 RMK A01 T01521041  RH  026%=      5-min Rain = 0
KTA1 202338Z 18007KT 15/M04 A3009 RMK A01 T01521041  RH  026%=      5-min Rain = 0
KTA1 202339Z 18008KT 15/M04 A3009 RMK A01 T01511040  RH  026%=      5-min Rain = 0
KTA1 202340Z 18008KT 15/M04 A3009 RMK A01 T01501041  RH  027%=      5-min Rain = 0
KTA1 202341Z 18007KT 15/M04 A3009 RMK A01 T01491041  RH  027%=      5-min Rain = 0
KTA1 202342Z 18007KT 15/M04 A3009 RMK A01 T01481041  RH  027%=      5-min Rain = 0
KTA1 202343Z 18007KT 15/M04 A3009 RMK A01 T01481041  RH  027%=      5-min Rain = 0
KTA1 202344Z 18007KT 15/M04 A3009 RMK A01 T01471040  RH  027%=      5-min Rain = 0
KTA1 202345Z 18008KT 15/M04 A3009 RMK A01 T01461041  RH  027%=      5-min Rain = 0
KTA1 202346Z 18007KT 15/M04 A3009 RMK A01 T01451041  RH  027%=      5-min Rain = 0
KTA1 202347Z 18007KT 15/M04 A3009 RMK A01 T01451040  RH  028%=      5-min Rain = 0
KTA1 202348Z 18007KT 14/M04 A3009 RMK A01 T01441040  RH  028%=      5-min Rain = 0
KTA1 202349Z 18007KT 14/M04 A3009 RMK A01 T01431040  RH  028%=      5-min Rain = 0
KTA1 202350Z 17006KT 14/M04 A3009 RMK A01 T01411040  RH  028%=      5-min Rain = 0
KTA1 202351Z 18007KT 14/M04 A3009 RMK A01 T01401040  RH  028%=      5-min Rain = 0
KTA1 202352Z 18006KT 14/M04 A3009 RMK A01 T01391040  RH  029%=      5-min Rain = 0
KTA1 202353Z 17006KT 14/M04 A3009 RMK A01 T01391040  RH  029%=      5-min Rain = 0
KTA1 202354Z 17006KT 14/M04 A3009 RMK A01 T01381040  RH  029%=      5-min Rain = 0
KTA1 202355Z 17006KT 14/M04 A3009 RMK A01 T01371040  RH  029%=      5-min Rain = 0
KTA1 202356Z 17006KT 14/M04 A3009 RMK A01 T01361040  RH  029%=      5-min Rain = 0
KTA1 202357Z 17006KT 14/M04 A3009 RMK A01 T01351040  RH  029%=      5-min Rain = 0
KTA1 202358Z 17006KT 13/M04 A3009 RMK A01 T01341040  RH  030%=      5-min Rain = 0
KTA1 202359Z 17006KT 13/M04 A3009 RMK A01 T01331040  RH  030%=      5-min Rain = 0
KTA1 210000Z 17006KT 13/M04 A3009 RMK A01 T01321040  RH  030%=      5-min Rain = 0
KTA1 210001Z 16007KT 13/M04 A3009 RMK A01 T01311040  RH  030%=      5-min Rain = 0
KTA1 210002Z 16007KT 13/M04 A3009 RMK A01 T01301040  RH  030%=      5-min Rain = 0
KTA1 210003Z 16007KT 13/M04 A3009 RMK A01 T01291040  RH  030%=      5-min Rain = 0
KTA1 210004Z 17007KT 13/M04 A3009 RMK A01 T01291040  RH  030%=      5-min Rain = 0
KTA1 210005Z 17007KT 13/M04 A3009 RMK A01 T01291040  RH  030%=      5-min Rain = 0
KTA1 210006Z 16007KT 13/M04 A3009 RMK A01 T01291040  RH  031%=      5-min Rain = 0
KTA1 210007Z 16008KT 13/M04 A3009 RMK A01 T01291040  RH  031%=      5-min Rain = 0
KTA1 210008Z 16007KT 13/M04 A3009 RMK A01 T01281040  RH  031%=      5-min Rain = 0
KTA1 210009Z 16007KT 13/M04 A3009 RMK A01 T01281039  RH  031%=      5-min Rain = 0
KTA1 210010Z 16007KT 13/M04 A3009 RMK A01 T01271039  RH  031%=      5-min Rain = 0
KTA1 210011Z 16007KT 13/M04 A3009 RMK A01 T01271038  RH  031%=      5-min Rain = 0
KTA1 210012Z 16008KT 13/M04 A3009 RMK A01 T01271038  RH  031%=      5-min Rain = 0
KTA1 210013Z 16008KT 13/M04 A3009 RMK A01 T01271038  RH  032%=      5-min Rain = 0
KTA1 210014Z 16008KT 13/M04 A3009 RMK A01 T01261038  RH  032%=      5-min Rain = 0
KTA1 210015Z 16008KT 13/M04 A3009 RMK A01 T01251038  RH  032%=      5-min Rain = 0
KTA1 210016Z 16008KT 12/M04 A3009 RMK A01 T01241038  RH  032%=      5-min Rain = 0
KTA1 210017Z 16008KT 12/M04 A3009 RMK A01 T01231038  RH  032%=      5-min Rain = 0
KTA1 210018Z 16008KT 12/M04 A3009 RMK A01 T01221039  RH  032%=      5-min Rain = 0
KTA1 210019Z 16008KT 12/M04 A3009 RMK A01 T01221039  RH  032%=      5-min Rain = 0
KTA1 210020Z 16008KT 12/M04 A3009 RMK A01 T01211039  RH  032%=      5-min Rain = 0
KTA1 210021Z 16008KT 12/M04 A3009 RMK A01 T01211039  RH  032%=      5-min Rain = 0
KTA1 210022Z 16009KT 12/M04 A3009 RMK A01 T01211039  RH  032%=      5-min Rain = 0
KTA1 210023Z 16009KT 12/M04 A3009 RMK A01 T01211038  RH  033%=      5-min Rain = 0
KTA1 210024Z 16009KT 12/M04 A3009 RMK A01 T01211039  RH  033%=      5-min Rain = 0
KTA1 210025Z 16009KT 12/M04 A3009 RMK A01 T01201039  RH  033%=      5-min Rain = 0
KTA1 210026Z 16009KT 12/M04 A3009 RMK A01 T01201039  RH  033%=      5-min Rain = 0
KTA1 210027Z 16009KT 12/M04 A3009 RMK A01 T01191039  RH  033%=      5-min Rain = 0
KTA1 210028Z 16009KT 12/M04 A3009 RMK A01 T01181038  RH  033%=      5-min Rain = 0
KTA1 210029Z 16009KT 12/M04 A3009 RMK A01 T01181038  RH  033%=      5-min Rain = 0
KTA1 210030Z 16009KT 12/M04 A3009 RMK A01 T01181037  RH  034%=      5-min Rain = 0
KTA1 210031Z 16009KT 12/M04 A3009 RMK A01 T01171036  RH  034%=      5-min Rain = 0
KTA1 210032Z 16009KT 12/M04 A3009 RMK A01 T01171036  RH  034%=      5-min Rain = 0
KTA1 210033Z 16010KT 12/M04 A3009 RMK A01 T01171035  RH  034%=      5-min Rain = 0
KTA1 210034Z 16009KT 12/M03 A3009 RMK A01 T01161034  RH  035%=      5-min Rain = 0
KTA1 210035Z 16009KT 12/M03 A3009 RMK A01 T01161033  RH  035%=      5-min Rain = 0
KTA1 210036Z 16009KT 12/M03 A3009 RMK A01 T01151032  RH  035%=      5-min Rain = 0
KTA1 210037Z 16009KT 12/M03 A3009 RMK A01 T01151032  RH  036%=      5-min Rain = 0
KTA1 210038Z 16009KT 11/M03 A3009 RMK A01 T01141031  RH  036%=      5-min Rain = 0
KTA1 210039Z 16009KT 11/M03 A3009 RMK A01 T01131031  RH  036%=      5-min Rain = 0
KTA1 210040Z 16009KT 11/M03 A3009 RMK A01 T01121031  RH  037%=      5-min Rain = 0
KTA1 210041Z 16008KT 11/M03 A3009 RMK A01 T01121030  RH  037%=      5-min Rain = 0
KTA1 210042Z 16008KT 11/M03 A3009 RMK A01 T01111030  RH  037%=      5-min Rain = 0
KTA1 210043Z 16009KT 11/M03 A3009 RMK A01 T01111029  RH  037%=      5-min Rain = 0
KTA1 210044Z 16008KT 11/M03 A3009 RMK A01 T01101028  RH  038%=      5-min Rain = 0
KTA1 210045Z 16008KT 11/M03 A3009 RMK A01 T01101027  RH  038%=      5-min Rain = 0
KTA1 210046Z 16008KT 11/M03 A3009 RMK A01 T01101026  RH  038%=      5-min Rain = 0
KTA1 210047Z 17008KT 11/M03 A3009 RMK A01 T01101025  RH  039%=      5-min Rain = 0
KTA1 210048Z 16008KT 11/M02 A3009 RMK A01 T01101024  RH  039%=      5-min Rain = 0
KTA1 210049Z 16008KT 11/M02 A3009 RMK A01 T01101024  RH  039%=      5-min Rain = 0
KTA1 210050Z 16008KT 11/M02 A3009 RMK A01 T01101023  RH  039%=      5-min Rain = 0
KTA1 210051Z 16008KT 11/M02 A3009 RMK A01 T01101023  RH  039%=      5-min Rain = 0
KTA1 210052Z 16008KT 11/M02 A3009 RMK A01 T01101022  RH  040%=      5-min Rain = 0
KTA1 210053Z 16008KT 11/M02 A3009 RMK A01 T01091022  RH  040%=      5-min Rain = 0
KTA1 210054Z 16008KT 11/M02 A3009 RMK A01 T01091022  RH  040%=      5-min Rain = 0
KTA1 210055Z 16008KT 11/M02 A3009 RMK A01 T01091021  RH  040%=      5-min Rain = 0
KTA1 210056Z 16007KT 11/M02 A3009 RMK A01 T01081021  RH  040%=      5-min Rain = 0
KTA1 210057Z 16008KT 11/M02 A3009 RMK A01 T01081021  RH  041%=      5-min Rain = 0
KTA1 210058Z 16007KT 11/M02 A3009 RMK A01 T01071021  RH  041%=      5-min Rain = 0
KTA1 210059Z 16008KT 11/M02 A3009 RMK A01 T01061021  RH  041%=      5-min Rain = 0
KTA1 210100Z 16007KT 11/M02 A3009 RMK A01 T01061020  RH  041%=      5-min Rain = 0
KTA1 210101Z 16008KT 11/M02 A3009 RMK A01 T01051020  RH  042%=      5-min Rain = 0
KTA1 210102Z 16007KT 11/M02 A3009 RMK A01 T01051020  RH  042%=      5-min Rain = 0
KTA1 210103Z 16007KT 10/M02 A3009 RMK A01 T01041020  RH  042%=      5-min Rain = 0
KTA1 210104Z 16007KT 10/M02 A3009 RMK A01 T01031020  RH  042%=      5-min Rain = 0
KTA1 210105Z 17007KT 10/M02 A3009 RMK A01 T01031020  RH  042%=      5-min Rain = 0
KTA1 210106Z 17007KT 10/M02 A3009 RMK A01 T01021019  RH  043%=      5-min Rain = 0
KTA1 210107Z 17007KT 10/M02 A3009 RMK A01 T01011019  RH  043%=      5-min Rain = 0
KTA1 210108Z 16007KT 10/M02 A3009 RMK A01 T01021019  RH  043%=      5-min Rain = 0
KTA1 210109Z 17007KT 10/M02 A3009 RMK A01 T01011019  RH  043%=      5-min Rain = 0
KTA1 210110Z 17007KT 10/M02 A3009 RMK A01 T01011019  RH  043%=      5-min Rain = 0
KTA1 210111Z 17007KT 10/M02 A3009 RMK A01 T01011019  RH  043%=      5-min Rain = 0
KTA1 210112Z 16007KT 10/M02 A3009 RMK A01 T01001019  RH  043%=      5-min Rain = 0
KTA1 210113Z 16006KT 10/M02 A3009 RMK A01 T01001018  RH  044%=      5-min Rain = 0
KTA1 210114Z 16007KT 10/M02 A3009 RMK A01 T01001018  RH  044%=      5-min Rain = 0
KTA1 210115Z 16008KT 10/M02 A3009 RMK A01 T00991018  RH  044%=      5-min Rain = 0
KTA1 210116Z 16008KT 10/M02 A3009 RMK A01 T00991018  RH  044%=      5-min Rain = 0
KTA1 210117Z 16008KT 10/M02 A3009 RMK A01 T00991018  RH  044%=      5-min Rain = 0
KTA1 210118Z 16008KT 10/M02 A3008 RMK A01 T00981018  RH  044%=      5-min Rain = 0
KTA1 210119Z 16008KT 10/M02 A3008 RMK A01 T00981018  RH  044%=      5-min Rain = 0
KTA1 210120Z 16008KT 10/M02 A3008 RMK A01 T00981018  RH  044%=      5-min Rain = 0
KTA1 210121Z 17008KT 10/M02 A3008 RMK A01 T00981018  RH  044%=      5-min Rain = 0
KTA1 210122Z 17008KT 10/M02 A3008 RMK A01 T00981018  RH  044%=      5-min Rain = 0
KTA1 210123Z 17008KT 10/M02 A3008 RMK A01 T00981018  RH  044%=      5-min Rain = 0
KTA1 210124Z 17007KT 10/M02 A3009 RMK A01 T00981018  RH  044%=      5-min Rain = 0
KTA1 210125Z 17008KT 10/M02 A3009 RMK A01 T00991018  RH  044%=      5-min Rain = 0
KTA1 210126Z 17008KT 10/M02 A3009 RMK A01 T00991018  RH  044%=      5-min Rain = 0
KTA1 210127Z 17008KT 10/M02 A3009 RMK A01 T00991018  RH  044%=      5-min Rain = 0
KTA1 210128Z 17008KT 10/M02 A3008 RMK A01 T00991018  RH  044%=      5-min Rain = 0
KTA1 210129Z 17008KT 10/M02 A3008 RMK A01 T00991018  RH  044%=      5-min Rain = 0
KTA1 210130Z 17008KT 10/M02 A3008 RMK A01 T00991018  RH  044%=      5-min Rain = 0
KTA1 210131Z 17008KT 10/M02 A3008 RMK A01 T00991018  RH  044%=      5-min Rain = 0
KTA1 210132Z 17009KT 10/M02 A3008 RMK A01 T00991017  RH  044%=      5-min Rain = 0
KTA1 210133Z 17009KT 10/M02 A3008 RMK A01 T00991017  RH  044%=      5-min Rain = 0
KTA1 210134Z 17009KT 10/M02 A3008 RMK A01 T00991017  RH  044%=      5-min Rain = 0
KTA1 210135Z 17009KT 10/M02 A3008 RMK A01 T01001017  RH  044%=      5-min Rain = 0
KTA1 210136Z 17009KT 10/M02 A3008 RMK A01 T01001017  RH  044%=      5-min Rain = 0
KTA1 210137Z 17009KT 10/M02 A3008 RMK A01 T00991017  RH  044%=      5-min Rain = 0
KTA1 210138Z 17009KT 10/M02 A3008 RMK A01 T00991017  RH  044%=      5-min Rain = 0
KTA1 210139Z 17009KT 10/M02 A3008 RMK A01 T00991017  RH  044%=      5-min Rain = 0
KTA1 210140Z 17009KT 10/M02 A3008 RMK A01 T00991017  RH  044%=      5-min Rain = 0
KTA1 210141Z 17009KT 10/M02 A3008 RMK A01 T00991017  RH  044%=      5-min Rain = 0
KTA1 210142Z 17010KT 10/M02 A3008 RMK A01 T00991017  RH  044%=      5-min Rain = 0
KTA1 210143Z 17009KT 10/M02 A3008 RMK A01 T01001016  RH  044%=      5-min Rain = 0
KTA1 210144Z 17010KT 10/M02 A3008 RMK A01 T01001016  RH  044%=      5-min Rain = 0
KTA1 210145Z 17010KT 10/M02 A3008 RMK A01 T01011016  RH  044%=      5-min Rain = 0
KTA1 210146Z 17009KT 10/M02 A3008 RMK A01 T01011016  RH  044%=      5-min Rain = 0
KTA1 210147Z 17009KT 10/M02 A3007 RMK A01 T01011016  RH  044%=      5-min Rain = 0
KTA1 210148Z 16009KT 10/M02 A3007 RMK A01 T01011015  RH  044%=      5-min Rain = 0
KTA1 210149Z 17010KT 10/M02 A3007 RMK A01 T01011015  RH  044%=      5-min Rain = 0
KTA1 210150Z 17010KT 10/M02 A3007 RMK A01 T01011015  RH  044%=      5-min Rain = 0
KTA1 210151Z 17009KT 10/M02 A3007 RMK A01 T01011016  RH  044%=      5-min Rain = 0
KTA1 210152Z 17009KT 10/M02 A3007 RMK A01 T01011015  RH  044%=      5-min Rain = 0
KTA1 210153Z 17009KT 10/M02 A3007 RMK A01 T01011015  RH  044%=      5-min Rain = 0
KTA1 210154Z 17009KT 10/M02 A3007 RMK A01 T01001015  RH  045%=      5-min Rain = 0
KTA1 210155Z 17009KT 10/M02 A3007 RMK A01 T01001015  RH  045%=      5-min Rain = 0
KTA1 210156Z 17010KT 10/M02 A3007 RMK A01 T01001015  RH  045%=      5-min Rain = 0
KTA1 210157Z 17009KT 10/M02 A3007 RMK A01 T00991015  RH  045%=      5-min Rain = 0
KTA1 210158Z 17010KT 10/M02 A3007 RMK A01 T01001015  RH  045%=      5-min Rain = 0
KTA1 210159Z 17009KT 10/M02 A3007 RMK A01 T01001015  RH  045%=      5-min Rain = 0
KTA1 210200Z 17009KT 10/M01 A3007 RMK A01 T01001014  RH  045%=      5-min Rain = 0
KTA1 210201Z 17008KT 10/M01 A3007 RMK A01 T01001014  RH  045%=      5-min Rain = 0
KTA1 210202Z 16009KT 10/M01 A3007 RMK A01 T00991014  RH  045%=      5-min Rain = 0
KTA1 210203Z 17009KT 10/M01 A3007 RMK A01 T00991014  RH  045%=      5-min Rain = 0
KTA1 210204Z 17009KT 10/M01 A3007 RMK A01 T00991013  RH  045%=      5-min Rain = 0
KTA1 210205Z 17009KT 10/M01 A3007 RMK A01 T00991013  RH  045%=      5-min Rain = 0
KTA1 210206Z 17010KT 10/M01 A3007 RMK A01 T00991013  RH  046%=      5-min Rain = 0
KTA1 210207Z 17009KT 10/M01 A3007 RMK A01 T00991013  RH  046%=      5-min Rain = 0
KTA1 210208Z 17010KT 10/M01 A3007 RMK A01 T00981013  RH  046%=      5-min Rain = 0
KTA1 210209Z 17009KT 10/M01 A3007 RMK A01 T00981013  RH  046%=      5-min Rain = 0
KTA1 210210Z 17009KT 10/M01 A3007 RMK A01 T00981013  RH  046%=      5-min Rain = 0
KTA1 210211Z 17009KT 10/M01 A3007 RMK A01 T00981013  RH  046%=      5-min Rain = 0
KTA1 210212Z 17009KT 10/M01 A3007 RMK A01 T00981013  RH  046%=      5-min Rain = 0
KTA1 210213Z 17010KT 10/M01 A3007 RMK A01 T00981013  RH  046%=      5-min Rain = 0
KTA1 210214Z 17009KT 10/M01 A3007 RMK A01 T00981013  RH  046%=      5-min Rain = 0
KTA1 210215Z 17010KT 10/M01 A3007 RMK A01 T00981013  RH  046%=      5-min Rain = 0
KTA1 210216Z 17010KT 10/M01 A3007 RMK A01 T00981012  RH  046%=      5-min Rain = 0
KTA1 210217Z 17010KT 10/M01 A3007 RMK A01 T00981013  RH  046%=      5-min Rain = 0
KTA1 210218Z 17009KT 10/M01 A3007 RMK A01 T00981013  RH  046%=      5-min Rain = 0
KTA1 210219Z 17010KT 10/M01 A3007 RMK A01 T00981013  RH  046%=      5-min Rain = 0
KTA1 210220Z 17009KT 10/M01 A3007 RMK A01 T00971013  RH  046%=      5-min Rain = 0
KTA1 210221Z 17010KT 10/M01 A3007 RMK A01 T00971013  RH  046%=      5-min Rain = 0
KTA1 210222Z 17010KT 10/M01 A3007 RMK A01 T00971013  RH  046%=      5-min Rain = 0
KTA1 210223Z 17010KT 10/M01 A3007 RMK A01 T00961013  RH  046%=      5-min Rain = 0
KTA1 210224Z 17010KT 10/M01 A3007 RMK A01 T00961013  RH  047%=      5-min Rain = 0
KTA1 210225Z 17011KT 10/M01 A3006 RMK A01 T00961013  RH  047%=      5-min Rain = 0
KTA1 210226Z 17010KT 10/M01 A3006 RMK A01 T00961013  RH  047%=      5-min Rain = 0
KTA1 210227Z 17010KT 10/M01 A3006 RMK A01 T00961013  RH  047%=      5-min Rain = 0
KTA1 210228Z 17010KT 10/M01 A3006 RMK A01 T00961013  RH  047%=      5-min Rain = 0
KTA1 210229Z 17010KT 10/M01 A3006 RMK A01 T00961013  RH  047%=      5-min Rain = 0
KTA1 210230Z 17011KT 10/M01 A3006 RMK A01 T00961013  RH  047%=      5-min Rain = 0
KTA1 210231Z 17010KT 10/M01 A3006 RMK A01 T00951013  RH  047%=      5-min Rain = 0
KTA1 210232Z 17010KT 10/M01 A3006 RMK A01 T00961013  RH  047%=      5-min Rain = 0
KTA1 210233Z 17010KT 10/M01 A3006 RMK A01 T00961013  RH  047%=      5-min Rain = 0
KTA1 210234Z 17011KT 10/M01 A3006 RMK A01 T00961013  RH  046%=      5-min Rain = 0
KTA1 210235Z 17011KT 10/M01 A3006 RMK A01 T00961013  RH  046%=      5-min Rain = 0
KTA1 210236Z 17011KT 10/M01 A3006 RMK A01 T00961014  RH  046%=      5-min Rain = 0
KTA1 210237Z 17011KT 10/M01 A3006 RMK A01 T00961013  RH  046%=      5-min Rain = 0
KTA1 210238Z 17010KT 10/M01 A3006 RMK A01 T00961014  RH  046%=      5-min Rain = 0
KTA1 210239Z 17010KT 10/M01 A3006 RMK A01 T00961014  RH  046%=      5-min Rain = 0
KTA1 210240Z 17010KT 10/M01 A3006 RMK A01 T00961014  RH  046%=      5-min Rain = 0
KTA1 210241Z 17011KT 10/M01 A3006 RMK A01 T00961014  RH  046%=      5-min Rain = 0
KTA1 210242Z 17010KT 10/M01 A3006 RMK A01 T00971013  RH  046%=      5-min Rain = 0
KTA1 210243Z 17011KT 10/M01 A3006 RMK A01 T00961014  RH  046%=      5-min Rain = 0
KTA1 210244Z 17011KT 10/M01 A3006 RMK A01 T00961014  RH  046%=      5-min Rain = 0
KTA1 210245Z 17010KT 10/M01 A3006 RMK A01 T00961013  RH  046%=      5-min Rain = 0
KTA1 210246Z 17011KT 10/M01 A3006 RMK A01 T00951014  RH  046%=      5-min Rain = 0
KTA1 210247Z 17011KT 10/M01 A3006 RMK A01 T00961013  RH  047%=      5-min Rain = 0
KTA1 210248Z 17011KT 10/M01 A3006 RMK A01 T00961014  RH  046%=      5-min Rain = 0
KTA1 210249Z 17010KT 10/M01 A3006 RMK A01 T00951014  RH  047%=      5-min Rain = 0
KTA1 210250Z 17009KT 10/M01 A3006 RMK A01 T00951014  RH  047%=      5-min Rain = 0
KTA1 210251Z 17011KT 10/M01 A3006 RMK A01 T00951013  RH  047%=      5-min Rain = 0
KTA1 210252Z 17011KT 10/M01 A3006 RMK A01 T00951014  RH  047%=      5-min Rain = 0
KTA1 210253Z 17011KT 10/M01 A3006 RMK A01 T00951014  RH  047%=      5-min Rain = 0
KTA1 210254Z 17010KT 10/M01 A3006 RMK A01 T00951014  RH  047%=      5-min Rain = 0
KTA1 210255Z 17010KT 10/M01 A3006 RMK A01 T00951014  RH  047%=      5-min Rain = 0
KTA1 210256Z 16010KT 09/M01 A3006 RMK A01 T00941014  RH  047%=      5-min Rain = 0
KTA1 210257Z 17010KT 09/M01 A3006 RMK A01 T00941014  RH  047%=      5-min Rain = 0
KTA1 210258Z 17009KT 09/M01 A3006 RMK A01 T00941014  RH  047%=      5-min Rain = 0
KTA1 210259Z 17010KT 09/M01 A3006 RMK A01 T00931014  RH  047%=      5-min Rain = 0
KTA1 210300Z 17009KT 09/M01 A3006 RMK A01 T00931014  RH  047%=      5-min Rain = 0
KTA1 210301Z 17009KT 09/M01 A3006 RMK A01 T00931014  RH  047%=      5-min Rain = 0
KTA1 210302Z 17010KT 09/M01 A3006 RMK A01 T00921014  RH  047%=      5-min Rain = 0
KTA1 210303Z 17010KT 09/M01 A3006 RMK A01 T00911014  RH  048%=      5-min Rain = 0
KTA1 210304Z 17009KT 09/M01 A3006 RMK A01 T00911014  RH  048%=      5-min Rain = 0
KTA1 210305Z 17010KT 09/M01 A3006 RMK A01 T00911014  RH  048%=      5-min Rain = 0
KTA1 210306Z 17010KT 09/M01 A3005 RMK A01 T00901014  RH  048%=      5-min Rain = 0
KTA1 210307Z 17011KT 09/M01 A3005 RMK A01 T00901014  RH  048%=      5-min Rain = 0
KTA1 210308Z 17010KT 09/M01 A3005 RMK A01 T00901014  RH  048%=      5-min Rain = 0
KTA1 210309Z 17010KT 09/M01 A3005 RMK A01 T00901014  RH  048%=      5-min Rain = 0
KTA1 210310Z 17010KT 09/M01 A3005 RMK A01 T00901014  RH  048%=      5-min Rain = 0
KTA1 210311Z 17011KT 09/M01 A3005 RMK A01 T00911014  RH  048%=      5-min Rain = 0
KTA1 210312Z 17011KT 09/M01 A3005 RMK A01 T00911014  RH  048%=      5-min Rain = 0
KTA1 210313Z 17011KT 09/M02 A3005 RMK A01 T00911015  RH  048%=      5-min Rain = 0
KTA1 210314Z 17010KT 09/M02 A3005 RMK A01 T00911015  RH  048%=      5-min Rain = 0
KTA1 210315Z 17011KT 09/M02 A3005 RMK A01 T00911015  RH  048%=      5-min Rain = 0
KTA1 210316Z 17011KT 09/M02 A3005 RMK A01 T00911015  RH  047%=      5-min Rain = 0
KTA1 210317Z 17010KT 09/M02 A3005 RMK A01 T00911015  RH  047%=      5-min Rain = 0
KTA1 210318Z 17011KT 09/M02 A3005 RMK A01 T00911015  RH  047%=      5-min Rain = 0
KTA1 210319Z 17011KT 09/M02 A3005 RMK A01 T00911015  RH  047%=      5-min Rain = 0
KTA1 210320Z 17011KT 09/M02 A3005 RMK A01 T00911015  RH  047%=      5-min Rain = 0
KTA1 210321Z 17011KT 09/M02 A3005 RMK A01 T00911015  RH  047%=      5-min Rain = 0
KTA1 210322Z 17011KT 09/M02 A3005 RMK A01 T00911015  RH  047%=      5-min Rain = 0
KTA1 210323Z 17012KT 09/M02 A3005 RMK A01 T00911015  RH  047%=      5-min Rain = 0
KTA1 210324Z 17011KT 09/M02 A3005 RMK A01 T00901016  RH  047%=      5-min Rain = 0
KTA1 210325Z 17012KT 09/M02 A3005 RMK A01 T00901016  RH  047%=      5-min Rain = 0
KTA1 210326Z 17012KT 09/M02 A3005 RMK A01 T00901016  RH  047%=      5-min Rain = 0
KTA1 210327Z 17012KT 09/M02 A3005 RMK A01 T00901016  RH  047%=      5-min Rain = 0
KTA1 210328Z 17012KT 09/M02 A3005 RMK A01 T00911016  RH  047%=      5-min Rain = 0
KTA1 210329Z 17011KT 09/M02 A3005 RMK A01 T00901016  RH  047%=      5-min Rain = 0
KTA1 210330Z 17011KT 09/M02 A3005 RMK A01 T00901016  RH  047%=      5-min Rain = 0
KTA1 210331Z 17011KT 09/M02 A3005 RMK A01 T00901016  RH  047%=      5-min Rain = 0
KTA1 210332Z 17011KT 09/M02 A3005 RMK A01 T00901016  RH  047%=      5-min Rain = 0
KTA1 210333Z 17011KT 09/M02 A3005 RMK A01 T00911016  RH  047%=      5-min Rain = 0
KTA1 210334Z 17010KT 09/M02 A3005 RMK A01 T00911016  RH  047%=      5-min Rain = 0
KTA1 210335Z 17012KT 09/M02 A3005 RMK A01 T00901016  RH  047%=      5-min Rain = 0
KTA1 210336Z 17011KT 09/M02 A3004 RMK A01 T00901016  RH  047%=      5-min Rain = 0
KTA1 210337Z 17011KT 09/M02 A3004 RMK A01 T00901016  RH  047%=      5-min Rain = 0
KTA1 210338Z 17010KT 09/M02 A3004 RMK A01 T00901016  RH  047%=      5-min Rain = 0
KTA1 210339Z 17011KT 09/M02 A3004 RMK A01 T00891017  RH  048%=      5-min Rain = 0
KTA1 210340Z 17012KT 09/M02 A3004 RMK A01 T00891016  RH  048%=      5-min Rain = 0
KTA1 210341Z 17012KT 09/M02 A3004 RMK A01 T00881017  RH  048%=      5-min Rain = 0
KTA1 210342Z 18012KT 09/M02 A3004 RMK A01 T00891016  RH  048%=      5-min Rain = 0
KTA1 210343Z 18012KT 09/M02 A3005 RMK A01 T00891017  RH  048%=      5-min Rain = 0
KTA1 210344Z 18011KT 09/M02 A3004 RMK A01 T00881017  RH  048%=      5-min Rain = 0
KTA1 210345Z 17011KT 09/M02 A3004 RMK A01 T00881017  RH  048%=      5-min Rain = 0
KTA1 210346Z 18012KT 09/M02 A3004 RMK A01 T00871017  RH  048%=      5-min Rain = 0
KTA1 210347Z 17013KT 09/M02 A3004 RMK A01 T00871017  RH  048%=      5-min Rain = 0
KTA1 210348Z 17013KT 09/M02 A3004 RMK A01 T00881017  RH  048%=      5-min Rain = 0
KTA1 210349Z 18012KT 09/M02 A3004 RMK A01 T00881017  RH  048%=      5-min Rain = 0
KTA1 210350Z 17012KT 09/M02 A3004 RMK A01 T00871017  RH  048%=      5-min Rain = 0
KTA1 210351Z 18012KT 09/M02 A3004 RMK A01 T00871017  RH  048%=      5-min Rain = 0
KTA1 210352Z 18012KT 09/M02 A3004 RMK A01 T00871017  RH  048%=      5-min Rain = 0
KTA1 210353Z 17012KT 09/M02 A3004 RMK A01 T00871017  RH  048%=      5-min Rain = 0
KTA1 210354Z 17010KT 09/M02 A3004 RMK A01 T00861017  RH  048%=      5-min Rain = 0
KTA1 210355Z 18011KT 09/M02 A3004 RMK A01 T00861017  RH  048%=      5-min Rain = 0
KTA1 210356Z 18012KT 09/M02 A3004 RMK A01 T00861017  RH  048%=      5-min Rain = 0
KTA1 210357Z 18010KT 09/M02 A3004 RMK A01 T00861017  RH  048%=      5-min Rain = 0
KTA1 210358Z 18011KT 09/M02 A3004 RMK A01 T00861017  RH  048%=      5-min Rain = 0
KTA1 210359Z 18011KT 09/M02 A3004 RMK A01 T00851017  RH  049%=      5-min Rain = 0
KTA1 210400Z 18010KT 09/M02 A3004 RMK A01 T00851017  RH  049%=      5-min Rain = 0
KTA1 210401Z 18011KT 09/M02 A3004 RMK A01 T00851017  RH  049%=      5-min Rain = 0
KTA1 210402Z 18010KT 09/M02 A3004 RMK A01 T00851017  RH  049%=      5-min Rain = 0
KTA1 210403Z 17011KT 09/M02 A3004 RMK A01 T00851016  RH  049%=      5-min Rain = 0
KTA1 210404Z 18010KT 09/M02 A3004 RMK A01 T00851017  RH  049%=      5-min Rain = 0
KTA1 210405Z 18011KT 09/M02 A3004 RMK A01 T00851016  RH  049%=      5-min Rain = 0
KTA1 210406Z 18011KT 08/M02 A3004 RMK A01 T00841017  RH  049%=      5-min Rain = 0
KTA1 210407Z 18013KT 08/M02 A3004 RMK A01 T00841016  RH  049%=      5-min Rain = 0
KTA1 210408Z 18012KT 09/M02 A3004 RMK A01 T00851016  RH  049%=      5-min Rain = 0
KTA1 210409Z 18011KT 09/M02 A3004 RMK A01 T00851016  RH  049%=      5-min Rain = 0
KTA1 210410Z 18012KT 09/M02 A3004 RMK A01 T00851016  RH  049%=      5-min Rain = 0
KTA1 210411Z 18013KT 09/M02 A3004 RMK A01 T00851016  RH  049%=      5-min Rain = 0
KTA1 210412Z 18012KT 09/M02 A3004 RMK A01 T00851016  RH  049%=      5-min Rain = 0
KTA1 210413Z 18012KT 09/M02 A3004 RMK A01 T00861015  RH  049%=      5-min Rain = 0
KTA1 210414Z 18011KT 09/M02 A3004 RMK A01 T00861016  RH  049%=      5-min Rain = 0
KTA1 210415Z 18012KT 09/M02 A3004 RMK A01 T00861015  RH  049%=      5-min Rain = 0
KTA1 210416Z 18012KT 09/M02 A3004 RMK A01 T00851015  RH  049%=      5-min Rain = 0
KTA1 210417Z 18010KT 09/M02 A3004 RMK A01 T00861015  RH  049%=      5-min Rain = 0
KTA1 210418Z 18011KT 09/M02 A3004 RMK A01 T00851015  RH  049%=      5-min Rain = 0
KTA1 210419Z 18012KT 09/M02 A3004 RMK A01 T00851015  RH  049%=      5-min Rain = 0
KTA1 210420Z 18012KT 09/M01 A3004 RMK A01 T00851014  RH  050%=      5-min Rain = 0
KTA1 210421Z 18012KT 09/M01 A3005 RMK A01 T00851014  RH  050%=      5-min Rain = 0
KTA1 210422Z 18013KT 09/M01 A3005 RMK A01 T00851014  RH  050%=      5-min Rain = 0
KTA1 210423Z 18012KT 09/M01 A3005 RMK A01 T00851014  RH  050%=      5-min Rain = 0
KTA1 210424Z 18011KT 09/M01 A3005 RMK A01 T00851014  RH  050%=      5-min Rain = 0
KTA1 210425Z 18012KT 09/M01 A3004 RMK A01 T00851014  RH  050%=      5-min Rain = 0
KTA1 210426Z 18013KT 09/M01 A3004 RMK A01 T00851014  RH  050%=      5-min Rain = 0
KTA1 210427Z 18013KT 08/M01 A3004 RMK A01 T00841014  RH  050%=      5-min Rain = 0
KTA1 210428Z 18013KT 08/M01 A3004 RMK A01 T00841014  RH  050%=      5-min Rain = 0
KTA1 210429Z 18012KT 08/M01 A3004 RMK A01 T00841013  RH  050%=      5-min Rain = 0
KTA1 210430Z 18012KT 08/M01 A3004 RMK A01 T00841013  RH  050%=      5-min Rain = 0
KTA1 210431Z 18012KT 09/M01 A3004 RMK A01 T00851013  RH  050%=      5-min Rain = 0
KTA1 210432Z 18012KT 08/M01 A3004 RMK A01 T00841013  RH  050%=      5-min Rain = 0
KTA1 210433Z 18012KT 08/M01 A3004 RMK A01 T00841013  RH  050%=      5-min Rain = 0
KTA1 210434Z 18012KT 08/M01 A3004 RMK A01 T00841013  RH  051%=      5-min Rain = 0
KTA1 210435Z 18012KT 08/M01 A3004 RMK A01 T00841013  RH  051%=      5-min Rain = 0
KTA1 210436Z 18011KT 08/M01 A3004 RMK A01 T00841012  RH  051%=      5-min Rain = 0
KTA1 210437Z 18012KT 08/M01 A3004 RMK A01 T00831012  RH  051%=      5-min Rain = 0
KTA1 210438Z 18012KT 08/M01 A3004 RMK A01 T00831012  RH  051%=      5-min Rain = 0
KTA1 210439Z 18012KT 08/M01 A3004 RMK A01 T00831012  RH  051%=      5-min Rain = 0
KTA1 210440Z 18012KT 08/M01 A3004 RMK A01 T00831012  RH  051%=      5-min Rain = 0
KTA1 210441Z 18011KT 08/M01 A3004 RMK A01 T00831012  RH  051%=      5-min Rain = 0
KTA1 210442Z 18013KT 08/M01 A3004 RMK A01 T00831012  RH  051%=      5-min Rain = 0
KTA1 210443Z 18012KT 08/M01 A3004 RMK A01 T00831012  RH  051%=      5-min Rain = 0
KTA1 210444Z 18012KT 08/M01 A3004 RMK A01 T00831011  RH  051%=      5-min Rain = 0
KTA1 210445Z 18010KT 08/M01 A3004 RMK A01 T00821012  RH  052%=      5-min Rain = 0
KTA1 210446Z 18012KT 08/M01 A3004 RMK A01 T00821011  RH  052%=      5-min Rain = 0
KTA1 210447Z 18011KT 08/M01 A3004 RMK A01 T00821011  RH  052%=      5-min Rain = 0
KTA1 210448Z 18011KT 08/M01 A3004 RMK A01 T00821011  RH  052%=      5-min Rain = 0
KTA1 210449Z 18013KT 08/M01 A3004 RMK A01 T00821011  RH  052%=      5-min Rain = 0
KTA1 210450Z 18011KT 08/M01 A3004 RMK A01 T00821011  RH  052%=      5-min Rain = 0
KTA1 210451Z 18010KT 08/M01 A3004 RMK A01 T00821011  RH  052%=      5-min Rain = 0
KTA1 210452Z 18012KT 08/M01 A3004 RMK A01 T00811011  RH  052%=      5-min Rain = 0
KTA1 210453Z 18012KT 08/M01 A3004 RMK A01 T00811010  RH  052%=      5-min Rain = 0
KTA1 210454Z 18011KT 08/M01 A3004 RMK A01 T00811010  RH  052%=      5-min Rain = 0
KTA1 210455Z 18012KT 08/M01 A3004 RMK A01 T00811010  RH  052%=      5-min Rain = 0
KTA1 210456Z 18011KT 08/M01 A3005 RMK A01 T00811010  RH  052%=      5-min Rain = 0
KTA1 210457Z 18011KT 08/M01 A3005 RMK A01 T00811010  RH  053%=      5-min Rain = 0
KTA1 210458Z 18011KT 08/M01 A3005 RMK A01 T00811010  RH  053%=      5-min Rain = 0
KTA1 210459Z 19011KT 08/M01 A3004 RMK A01 T00801010  RH  053%=      5-min Rain = 0
KTA1 210500Z 18011KT 08/M01 A3005 RMK A01 T00801010  RH  053%=      5-min Rain = 0
KTA1 210501Z 18011KT 08/M01 A3005 RMK A01 T00801010  RH  053%=      5-min Rain = 0
KTA1 210502Z 18011KT 08/M01 A3005 RMK A01 T00791010  RH  053%=      5-min Rain = 0
KTA1 210503Z 18011KT 08/M01 A3005 RMK A01 T00801010  RH  053%=      5-min Rain = 0
KTA1 210504Z 18011KT 08/M01 A3005 RMK A01 T00801010  RH  053%=      5-min Rain = 0
KTA1 210505Z 18011KT 08/M01 A3005 RMK A01 T00801009  RH  053%=      5-min Rain = 0
KTA1 210506Z 18011KT 08/M01 A3005 RMK A01 T00801009  RH  053%=      5-min Rain = 0
KTA1 210507Z 18010KT 08/M01 A3005 RMK A01 T00801010  RH  053%=      5-min Rain = 0
KTA1 210508Z 18010KT 08/M01 A3005 RMK A01 T00801010  RH  053%=      5-min Rain = 0
KTA1 210509Z 18011KT 08/M01 A3005 RMK A01 T00791010  RH  053%=      5-min Rain = 0
KTA1 210510Z 18010KT 08/M01 A3005 RMK A01 T00791009  RH  053%=      5-min Rain = 0
KTA1 210511Z 19010KT 08/M01 A3005 RMK A01 T00791009  RH  054%=      5-min Rain = 0
KTA1 210512Z 18010KT 08/M01 A3005 RMK A01 T00791009  RH  054%=      5-min Rain = 0
KTA1 210513Z 19009KT 08/M01 A3005 RMK A01 T00791009  RH  054%=      5-min Rain = 0
KTA1 210514Z 19009KT 08/M01 A3005 RMK A01 T00791009  RH  054%=      5-min Rain = 0
KTA1 210515Z 19009KT 08/M01 A3005 RMK A01 T00791009  RH  054%=      5-min Rain = 0
KTA1 210516Z 19009KT 08/M01 A3005 RMK A01 T00781009  RH  054%=      5-min Rain = 0
KTA1 210517Z 19009KT 08/M01 A3005 RMK A01 T00781009  RH  054%=      5-min Rain = 0
KTA1 210518Z 19009KT 08/M01 A3005 RMK A01 T00781009  RH  054%=      5-min Rain = 0
KTA1 210519Z 19009KT 08/M01 A3005 RMK A01 T00781009  RH  054%=      5-min Rain = 0
KTA1 210520Z 19009KT 08/M01 A3006 RMK A01 T00771009  RH  054%=      5-min Rain = 0
KTA1 210521Z 19009KT 08/M01 A3006 RMK A01 T00771009  RH  055%=      5-min Rain = 0
KTA1 210522Z 19009KT 08/M01 A3006 RMK A01 T00761009  RH  055%=      5-min Rain = 0
KTA1 210523Z 19009KT 08/M01 A3006 RMK A01 T00761009  RH  055%=      5-min Rain = 0
KTA1 210524Z 19009KT 08/M01 A3006 RMK A01 T00761009  RH  055%=      5-min Rain = 0
KTA1 210525Z 19008KT 08/M01 A3006 RMK A01 T00751009  RH  055%=      5-min Rain = 0
KTA1 210526Z 19009KT 08/M01 A3006 RMK A01 T00751009  RH  055%=      5-min Rain = 0
KTA1 210527Z 19009KT 08/M01 A3006 RMK A01 T00751009  RH  055%=      5-min Rain = 0
KTA1 210528Z 19009KT 08/M01 A3006 RMK A01 T00751009  RH  055%=      5-min Rain = 0
KTA1 210529Z 19009KT 08/M01 A3006 RMK A01 T00751009  RH  055%=      5-min Rain = 0
KTA1 210530Z 19009KT 07/M01 A3006 RMK A01 T00741009  RH  055%=      5-min Rain = 0
KTA1 210531Z 19010KT 07/M01 A3006 RMK A01 T00741009  RH  056%=      5-min Rain = 0
KTA1 210532Z 19010KT 07/M01 A3006 RMK A01 T00741009  RH  056%=      5-min Rain = 0
KTA1 210533Z 19010KT 08/M01 A3006 RMK A01 T00751009  RH  055%=      5-min Rain = 0
KTA1 210534Z 18009KT 08/M01 A3006 RMK A01 T00751009  RH  055%=      5-min Rain = 0
KTA1 210535Z 19009KT 08/M01 A3006 RMK A01 T00751008  RH  055%=      5-min Rain = 0
KTA1 210536Z 19009KT 08/M01 A3006 RMK A01 T00751008  RH  055%=      5-min Rain = 0
KTA1 210537Z 19010KT 08/M01 A3006 RMK A01 T00751008  RH  056%=      5-min Rain = 0
KTA1 210538Z 19009KT 08/M01 A3006 RMK A01 T00751008  RH  056%=      5-min Rain = 0
KTA1 210539Z 19009KT 08/M01 A3006 RMK A01 T00751008  RH  056%=      5-min Rain = 0
KTA1 210540Z 19009KT 07/M01 A3006 RMK A01 T00741008  RH  056%=      5-min Rain = 0
KTA1 210541Z 19009KT 07/M01 A3006 RMK A01 T00741008  RH  056%=      5-min Rain = 0
KTA1 210542Z 18009KT 07/M01 A3006 RMK A01 T00741008  RH  056%=      5-min Rain = 0
KTA1 210543Z 18010KT 07/M01 A3006 RMK A01 T00731008  RH  056%=      5-min Rain = 0
KTA1 210544Z 18009KT 07/M01 A3005 RMK A01 T00731008  RH  056%=      5-min Rain = 0
KTA1 210545Z 18009KT 07/M01 A3005 RMK A01 T00731008  RH  056%=      5-min Rain = 0
KTA1 210546Z 18009KT 07/M01 A3005 RMK A01 T00731008  RH  056%=      5-min Rain = 0
KTA1 210547Z 18009KT 07/M01 A3005 RMK A01 T00731008  RH  056%=      5-min Rain = 0
KTA1 210548Z 18009KT 07/M01 A3005 RMK A01 T00731008  RH  056%=      5-min Rain = 0
KTA1 210549Z 18008KT 07/M01 A3005 RMK A01 T00721008  RH  057%=      5-min Rain = 0
KTA1 210550Z 18009KT 07/M01 A3005 RMK A01 T00721008  RH  057%=      5-min Rain = 0
KTA1 210551Z 17009KT 07/M01 A3005 RMK A01 T00711008  RH  057%=      5-min Rain = 0
KTA1 210552Z 18009KT 07/M01 A3005 RMK A01 T00711008  RH  057%=      5-min Rain = 0
KTA1 210553Z 18009KT 07/M01 A3005 RMK A01 T00711008  RH  057%=      5-min Rain = 0
KTA1 210554Z 18009KT 07/M01 A3005 RMK A01 T00711008  RH  057%=      5-min Rain = 0
KTA1 210555Z 18009KT 07/M01 A3005 RMK A01 T00701008  RH  058%=      5-min Rain = 0
KTA1 210556Z 18009KT 07/M01 A3005 RMK A01 T00701008  RH  058%=      5-min Rain = 0
KTA1 210557Z 18009KT 07/M01 A3005 RMK A01 T00701008  RH  058%=      5-min Rain = 0
KTA1 210558Z 18009KT 07/M01 A3005 RMK A01 T00701008  RH  058%=      5-min Rain = 0
KTA1 210559Z 18009KT 07/M01 A3005 RMK A01 T00691008  RH  058%=      5-min Rain = 0

Page generated in 0.071 seconds.